Time,TemperatureF,DewpointF,PressureIn,WindDirection,WindDirectionDegrees,WindSpeedMPH,WindSpeedGustMPH,Humidity,HourlyPrecipIn,Conditions,Clouds,dailyrainin,SoftwareType,DateUTC
2013-05-27 00:00:00,44.1,20.7,30.20,NNE,20,0.0,0.0,39,0.00,,---,0.00,VWS V13.01,2013-05-27 05:00:00,
2013-05-27 00:01:00,43.9,20.5,30.20,NNE,20,0.0,0.0,39,0.00,,---,0.00,VWS V13.01,2013-05-27 05:01:00,
2013-05-27 00:02:00,43.9,20.5,30.20,NNE,20,0.0,0.0,39,0.00,,---,0.00,VWS V13.01,2013-05-27 05:02:00,
2013-05-27 00:03:00,44.1,20.7,30.20,NNE,20,0.0,0.0,39,0.00,,---,0.00,VWS V13.01,2013-05-27 05:03:00,
2013-05-27 00:04:00,43.7,20.4,30.20,NNE,20,0.0,0.0,39,0.00,,---,0.00,VWS V13.01,2013-05-27 05:04:00,
2013-05-27 00:05:00,43.7,20.4,30.20,NNE,20,0.0,0.0,39,0.00,,---,0.00,VWS V13.01,2013-05-27 05:05:00,
2013-05-27 00:06:00,43.7,20.4,30.20,NNE,20,0.0,0.0,39,0.00,,---,0.00,VWS V13.01,2013-05-27 05:06:00,
2013-05-27 00:07:00,43.5,20.2,30.20,NNE,20,0.0,0.0,39,0.00,,---,0.00,VWS V13.01,2013-05-27 05:07:00,
2013-05-27 00:08:00,43.7,20.4,30.20,NNE,20,0.0,0.0,39,0.00,,---,0.00,VWS V13.01,2013-05-27 05:08:00,
2013-05-27 00:09:00,43.5,20.2,30.20,NNE,20,0.0,0.0,39,0.00,,---,0.00,VWS V13.01,2013-05-27 05:09:00,
2013-05-27 00:10:00,43.3,20.1,30.17,NNE,20,0.0,0.0,39,0.00,,---,0.00,VWS V13.01,2013-05-27 05:10:00,
2013-05-27 00:11:00,43.3,20.1,30.17,NNE,20,0.0,0.0,39,0.00,,---,0.00,VWS V13.01,2013-05-27 05:11:00,
2013-05-27 00:12:00,43.3,20.1,30.17,NNE,20,0.0,0.0,39,0.00,,---,0.00,VWS V13.01,2013-05-27 05:12:00,
2013-05-27 00:13:00,43.3,20.1,30.17,NNE,20,0.0,0.0,39,0.00,,---,0.00,VWS V13.01,2013-05-27 05:13:00,
2013-05-27 00:14:00,43.2,20.5,30.17,NNE,20,0.0,0.0,40,0.00,,---,0.00,VWS V13.01,2013-05-27 05:14:00,
2013-05-27 00:15:00,43.0,20.3,30.17,NNE,20,0.0,0.0,40,0.00,,---,0.00,VWS V13.01,2013-05-27 05:15:00,
2013-05-27 00:16:00,43.0,20.3,30.17,NNE,20,0.0,0.0,40,0.00,,---,0.00,VWS V13.01,2013-05-27 05:16:00,
2013-05-27 00:17:00,43.0,20.3,30.17,NNE,20,0.0,0.0,40,0.00,,---,0.00,VWS V13.01,2013-05-27 05:17:00,
2013-05-27 00:18:00,43.0,20.3,30.17,NNE,20,0.0,0.0,40,0.00,,---,0.00,VWS V13.01,2013-05-27 05:18:00,
2013-05-27 00:19:00,42.8,20.2,30.17,NNE,20,0.0,0.0,40,0.00,,---,0.00,VWS V13.01,2013-05-27 05:19:00,
2013-05-27 00:20:00,42.8,20.2,30.17,NNE,20,0.0,0.0,40,0.00,,---,0.00,VWS V13.01,2013-05-27 05:20:00,
2013-05-27 00:21:00,42.8,20.2,30.17,NNE,20,0.0,0.0,40,0.00,,---,0.00,VWS V13.01,2013-05-27 05:21:00,
2013-05-27 00:22:00,42.8,20.2,30.17,NNE,20,3.1,4.0,40,0.00,,---,0.00,VWS V13.01,2013-05-27 05:22:00,
2013-05-27 00:23:00,42.8,20.2,30.17,NNE,20,0.0,0.0,40,0.00,,---,0.00,VWS V13.01,2013-05-27 05:23:00,
2013-05-27 00:24:00,42.6,20.6,30.17,NNE,20,0.0,4.5,41,0.00,,---,0.00,VWS V13.01,2013-05-27 05:24:00,
2013-05-27 00:25:00,42.6,20.6,30.17,NNE,20,4.0,4.5,41,0.00,,---,0.00,VWS V13.01,2013-05-27 05:25:00,
2013-05-27 00:26:00,42.6,20.6,30.17,South,184,4.0,4.0,41,0.00,,---,0.00,VWS V13.01,2013-05-27 05:26:00,
2013-05-27 00:27:00,42.6,20.6,30.17,South,186,0.0,4.5,41,0.00,,---,0.00,VWS V13.01,2013-05-27 05:27:00,
2013-05-27 00:28:00,42.6,20.6,30.17,South,184,3.1,4.0,41,0.00,,---,0.00,VWS V13.01,2013-05-27 05:28:00,
2013-05-27 00:29:00,42.4,21.0,30.17,South,186,0.0,0.0,42,0.00,,---,0.00,VWS V13.01,2013-05-27 05:29:00,
2013-05-27 00:30:00,42.4,21.0,30.17,South,186,0.0,0.0,42,0.00,,---,0.00,VWS V13.01,2013-05-27 05:30:00,
2013-05-27 00:31:00,42.4,21.0,30.17,South,186,0.0,0.0,42,0.00,,---,0.00,VWS V13.01,2013-05-27 05:31:00,
2013-05-27 00:32:00,42.4,21.0,30.17,South,186,0.0,0.0,42,0.00,,---,0.00,VWS V13.01,2013-05-27 05:32:00,
2013-05-27 00:33:00,42.4,21.0,30.17,South,186,0.0,0.0,42,0.00,,---,0.00,VWS V13.01,2013-05-27 05:33:00,
2013-05-27 00:34:00,42.3,20.8,30.17,South,186,0.0,0.0,42,0.00,,---,0.00,VWS V13.01,2013-05-27 05:34:00,
2013-05-27 00:35:00,42.3,20.8,30.17,South,186,0.0,0.0,42,0.00,,---,0.00,VWS V13.01,2013-05-27 05:35:00,
2013-05-27 00:36:00,42.3,20.8,30.17,South,186,0.0,0.0,42,0.00,,---,0.00,VWS V13.01,2013-05-27 05:36:00,
2013-05-27 00:37:00,42.3,20.8,30.17,South,186,0.0,0.0,42,0.00,,---,0.00,VWS V13.01,2013-05-27 05:37:00,
2013-05-27 00:38:00,42.3,20.8,30.17,South,186,0.0,0.0,42,0.00,,---,0.00,VWS V13.01,2013-05-27 05:38:00,
2013-05-27 00:39:00,42.1,20.7,30.17,South,186,0.0,0.0,42,0.00,,---,0.00,VWS V13.01,2013-05-27 05:39:00,
2013-05-27 00:40:00,42.1,20.7,30.17,South,186,0.0,0.0,42,0.00,,---,0.00,VWS V13.01,2013-05-27 05:40:00,
2013-05-27 00:41:00,41.9,20.5,30.14,South,186,0.0,0.0,42,0.00,,---,0.00,VWS V13.01,2013-05-27 05:41:00,
2013-05-27 00:42:00,41.7,20.3,30.14,South,186,0.0,0.0,42,0.00,,---,0.00,VWS V13.01,2013-05-27 05:42:00,
2013-05-27 00:43:00,41.7,20.3,30.14,South,186,0.0,0.0,42,0.00,,---,0.00,VWS V13.01,2013-05-27 05:43:00,
2013-05-27 00:44:00,41.5,20.2,30.14,South,186,0.0,0.0,42,0.00,,---,0.00,VWS V13.01,2013-05-27 05:44:00,
2013-05-27 00:45:00,41.5,20.2,30.14,South,186,0.0,0.0,42,0.00,,---,0.00,VWS V13.01,2013-05-27 05:45:00,
2013-05-27 00:46:00,41.4,20.0,30.14,South,186,0.0,0.0,42,0.00,,---,0.00,VWS V13.01,2013-05-27 05:46:00,
2013-05-27 00:47:00,41.4,20.6,30.14,South,186,0.0,0.0,43,0.00,,---,0.00,VWS V13.01,2013-05-27 05:47:00,
2013-05-27 00:48:00,41.4,20.6,30.14,South,186,0.0,0.0,43,0.00,,---,0.00,VWS V13.01,2013-05-27 05:48:00,
2013-05-27 00:49:00,41.0,20.2,30.14,South,186,0.0,0.0,43,0.00,,---,0.00,VWS V13.01,2013-05-27 05:49:00,
2013-05-27 00:50:00,41.0,20.2,30.14,South,186,0.0,0.0,43,0.00,,---,0.00,VWS V13.01,2013-05-27 05:50:00,
2013-05-27 00:51:00,40.8,20.1,30.14,South,186,0.0,0.0,43,0.00,,---,0.00,VWS V13.01,2013-05-27 05:51:00,
2013-05-27 00:52:00,40.6,19.9,30.14,South,186,0.0,0.0,43,0.00,,---,0.00,VWS V13.01,2013-05-27 05:52:00,
2013-05-27 00:53:00,40.6,19.9,30.14,South,186,0.0,0.0,43,0.00,,---,0.00,VWS V13.01,2013-05-27 05:53:00,
2013-05-27 00:54:00,40.5,20.3,30.14,South,186,0.0,0.0,44,0.00,,---,0.00,VWS V13.01,2013-05-27 05:54:00,
2013-05-27 00:55:00,40.5,20.3,30.14,South,186,0.0,0.0,44,0.00,,---,0.00,VWS V13.01,2013-05-27 05:55:00,
2013-05-27 00:56:00,40.5,20.3,30.14,South,186,0.0,0.0,44,0.00,,---,0.00,VWS V13.01,2013-05-27 05:56:00,
2013-05-27 00:57:00,40.3,20.1,30.14,South,186,0.0,0.0,44,0.00,,---,0.00,VWS V13.01,2013-05-27 05:57:00,
2013-05-27 00:58:00,40.3,20.1,30.14,South,186,0.0,0.0,44,0.00,,---,0.00,VWS V13.01,2013-05-27 05:58:00,
2013-05-27 00:59:00,40.3,20.1,30.14,South,186,0.0,0.0,44,0.00,,---,0.00,VWS V13.01,2013-05-27 05:59:00,
2013-05-27 01:00:00,40.1,20.5,30.14,South,186,0.0,0.0,45,0.00,,---,0.00,VWS V13.01,2013-05-27 06:00:00,
2013-05-27 01:01:00,40.1,20.5,30.14,South,185,0.0,0.0,45,0.00,,---,0.00,VWS V13.01,2013-05-27 06:01:00,
2013-05-27 01:02:00,40.1,20.5,30.14,South,186,0.0,0.0,45,0.00,,---,0.00,VWS V13.01,2013-05-27 06:02:00,
2013-05-27 01:03:00,39.9,20.3,30.14,South,186,0.0,0.0,45,0.00,,---,0.00,VWS V13.01,2013-05-27 06:03:00,
2013-05-27 01:04:00,40.1,20.5,30.14,South,186,0.0,0.0,45,0.00,,---,0.00,VWS V13.01,2013-05-27 06:04:00,
2013-05-27 01:05:00,39.9,20.8,30.14,South,186,0.0,0.0,46,0.00,,---,0.00,VWS V13.01,2013-05-27 06:05:00,
2013-05-27 01:06:00,39.9,20.8,30.14,South,186,0.0,0.0,46,0.00,,---,0.00,VWS V13.01,2013-05-27 06:06:00,
2013-05-27 01:07:00,39.9,20.8,30.14,South,186,0.0,0.0,46,0.00,,---,0.00,VWS V13.01,2013-05-27 06:07:00,
2013-05-27 01:08:00,39.9,21.3,30.14,South,186,0.0,0.0,47,0.00,,---,0.00,VWS V13.01,2013-05-27 06:08:00,
2013-05-27 01:09:00,39.9,20.8,30.14,South,186,0.0,0.0,46,0.00,,---,0.00,VWS V13.01,2013-05-27 06:09:00,
2013-05-27 01:10:00,39.9,21.3,30.14,South,186,0.0,0.0,47,0.00,,---,0.00,VWS V13.01,2013-05-27 06:10:00,
2013-05-27 01:11:00,39.9,21.3,30.14,South,186,0.0,0.0,47,0.00,,---,0.00,VWS V13.01,2013-05-27 06:11:00,
2013-05-27 01:12:00,39.7,21.2,30.14,South,186,0.0,0.0,47,0.00,,---,0.00,VWS V13.01,2013-05-27 06:12:00,
2013-05-27 01:13:00,39.7,21.2,30.14,South,186,0.0,0.0,47,0.00,,---,0.00,VWS V13.01,2013-05-27 06:13:00,
2013-05-27 01:14:00,39.7,21.2,30.14,South,186,0.0,0.0,47,0.00,,---,0.00,VWS V13.01,2013-05-27 06:14:00,
2013-05-27 01:15:00,39.7,21.7,30.14,South,186,0.0,0.0,48,0.00,,---,0.00,VWS V13.01,2013-05-27 06:15:00,
2013-05-27 01:16:00,39.7,22.2,30.14,South,186,0.0,0.0,49,0.00,,---,0.00,VWS V13.01,2013-05-27 06:16:00,
2013-05-27 01:17:00,39.9,22.3,30.14,South,186,0.0,0.0,49,0.00,,---,0.00,VWS V13.01,2013-05-27 06:17:00,
2013-05-27 01:18:00,39.9,22.3,30.14,South,186,0.0,0.0,49,0.00,,---,0.00,VWS V13.01,2013-05-27 06:18:00,
2013-05-27 01:19:00,39.9,22.3,30.14,South,186,0.0,0.0,49,0.00,,---,0.00,VWS V13.01,2013-05-27 06:19:00,
2013-05-27 01:20:00,39.9,22.3,30.14,South,186,0.0,0.0,49,0.00,,---,0.00,VWS V13.01,2013-05-27 06:20:00,
2013-05-27 01:21:00,39.9,22.3,30.14,South,186,0.0,0.0,49,0.00,,---,0.00,VWS V13.01,2013-05-27 06:21:00,
2013-05-27 01:22:00,39.9,22.3,30.14,South,186,0.0,0.0,49,0.00,,---,0.00,VWS V13.01,2013-05-27 06:22:00,
2013-05-27 01:23:00,40.1,22.5,30.14,South,186,0.0,0.0,49,0.00,,---,0.00,VWS V13.01,2013-05-27 06:23:00,
2013-05-27 01:24:00,39.9,22.3,30.14,South,186,0.0,0.0,49,0.00,,---,0.00,VWS V13.01,2013-05-27 06:24:00,
2013-05-27 01:25:00,40.1,23.0,30.14,South,186,0.0,0.0,50,0.00,,---,0.00,VWS V13.01,2013-05-27 06:25:00,
2013-05-27 01:26:00,40.1,22.5,30.17,South,186,0.0,0.0,49,0.00,,---,0.00,VWS V13.01,2013-05-27 06:26:00,
2013-05-27 01:27:00,40.3,22.7,30.17,South,186,0.0,0.0,49,0.00,,---,0.00,VWS V13.01,2013-05-27 06:27:00,
2013-05-27 01:28:00,40.3,23.1,30.17,South,185,0.0,0.0,50,0.00,,---,0.00,VWS V13.01,2013-05-27 06:28:00,
2013-05-27 01:29:00,40.3,23.1,30.17,South,186,0.0,0.0,50,0.00,,---,0.00,VWS V13.01,2013-05-27 06:29:00,
2013-05-27 01:30:00,40.3,23.1,30.17,South,186,0.0,0.0,50,0.00,,---,0.00,VWS V13.01,2013-05-27 06:30:00,
2013-05-27 01:31:00,40.3,23.6,30.17,South,186,0.0,0.0,51,0.00,,---,0.00,VWS V13.01,2013-05-27 06:31:00,
2013-05-27 01:32:00,40.3,23.6,30.17,South,186,0.0,0.0,51,0.00,,---,0.00,VWS V13.01,2013-05-27 06:32:00,
2013-05-27 01:33:00,40.3,23.6,30.17,South,186,0.0,0.0,51,0.00,,---,0.00,VWS V13.01,2013-05-27 06:33:00,
2013-05-27 01:34:00,40.3,23.6,30.17,South,186,0.0,0.0,51,0.00,,---,0.00,VWS V13.01,2013-05-27 06:34:00,
2013-05-27 01:35:00,40.3,23.6,30.17,South,186,0.0,0.0,51,0.00,,---,0.00,VWS V13.01,2013-05-27 06:35:00,
2013-05-27 01:36:00,40.3,23.6,30.17,South,186,0.0,0.0,51,0.00,,---,0.00,VWS V13.01,2013-05-27 06:36:00,
2013-05-27 01:37:00,40.3,23.6,30.17,South,186,0.0,0.0,51,0.00,,---,0.00,VWS V13.01,2013-05-27 06:37:00,
2013-05-27 01:38:00,40.3,23.6,30.17,South,186,0.0,0.0,51,0.00,,---,0.00,VWS V13.01,2013-05-27 06:38:00,
2013-05-27 01:39:00,40.3,23.6,30.17,South,186,0.0,0.0,51,0.00,,---,0.00,VWS V13.01,2013-05-27 06:39:00,
2013-05-27 01:40:00,40.1,23.4,30.17,South,186,0.0,0.0,51,0.00,,---,0.00,VWS V13.01,2013-05-27 06:40:00,
2013-05-27 01:41:00,40.1,23.4,30.17,South,186,0.0,0.0,51,0.00,,---,0.00,VWS V13.01,2013-05-27 06:41:00,
2013-05-27 01:42:00,40.1,23.4,30.17,South,186,0.0,0.0,51,0.00,,---,0.00,VWS V13.01,2013-05-27 06:42:00,
2013-05-27 01:43:00,39.9,23.3,30.17,South,186,0.0,0.0,51,0.00,,---,0.00,VWS V13.01,2013-05-27 06:43:00,
2013-05-27 01:44:00,39.9,23.3,30.17,South,186,0.0,0.0,51,0.00,,---,0.00,VWS V13.01,2013-05-27 06:44:00,
2013-05-27 01:45:00,39.9,23.3,30.17,South,186,0.0,0.0,51,0.00,,---,0.00,VWS V13.01,2013-05-27 06:45:00,
2013-05-27 01:46:00,39.9,23.3,30.17,South,186,0.0,0.0,51,0.00,,---,0.00,VWS V13.01,2013-05-27 06:46:00,
2013-05-27 01:47:00,39.9,23.7,30.17,South,186,0.0,0.0,52,0.00,,---,0.00,VWS V13.01,2013-05-27 06:47:00,
2013-05-27 01:48:00,39.9,23.7,30.17,South,186,0.0,0.0,52,0.00,,---,0.00,VWS V13.01,2013-05-27 06:48:00,
2013-05-27 01:49:00,39.7,23.6,30.17,South,186,0.0,0.0,52,0.00,,---,0.00,VWS V13.01,2013-05-27 06:49:00,
2013-05-27 01:50:00,39.9,23.7,30.17,South,186,0.0,0.0,52,0.00,,---,0.00,VWS V13.01,2013-05-27 06:50:00,
2013-05-27 01:51:00,39.7,24.0,30.17,South,186,0.0,0.0,53,0.00,,---,0.00,VWS V13.01,2013-05-27 06:51:00,
2013-05-27 01:52:00,39.7,24.0,30.17,South,186,0.0,0.0,53,0.00,,---,0.00,VWS V13.01,2013-05-27 06:52:00,
2013-05-27 01:53:00,39.7,24.0,30.17,South,186,0.0,0.0,53,0.00,,---,0.00,VWS V13.01,2013-05-27 06:53:00,
2013-05-27 01:54:00,39.7,24.0,30.17,South,186,0.0,0.0,53,0.00,,---,0.00,VWS V13.01,2013-05-27 06:54:00,
2013-05-27 01:55:00,39.7,24.0,30.17,South,186,0.0,0.0,53,0.00,,---,0.00,VWS V13.01,2013-05-27 06:55:00,
2013-05-27 01:56:00,39.7,24.5,30.17,South,186,0.0,0.0,54,0.00,,---,0.00,VWS V13.01,2013-05-27 06:56:00,
2013-05-27 01:57:00,39.6,24.3,30.17,South,186,0.0,0.0,54,0.00,,---,0.00,VWS V13.01,2013-05-27 06:57:00,
2013-05-27 01:58:00,39.6,24.3,30.17,South,186,0.0,0.0,54,0.00,,---,0.00,VWS V13.01,2013-05-27 06:58:00,
2013-05-27 01:59:00,39.6,24.3,30.17,South,186,0.0,0.0,54,0.00,,---,0.00,VWS V13.01,2013-05-27 06:59:00,
2013-05-27 02:00:00,39.6,24.3,30.17,South,186,0.0,0.0,54,0.00,,---,0.00,VWS V13.01,2013-05-27 07:00:00,
2013-05-27 02:01:00,39.6,24.3,30.17,South,186,0.0,0.0,54,0.00,,---,0.00,VWS V13.01,2013-05-27 07:01:00,
2013-05-27 02:02:00,39.6,24.3,30.17,South,186,0.0,0.0,54,0.00,,---,0.00,VWS V13.01,2013-05-27 07:02:00,
2013-05-27 02:03:00,39.4,24.1,30.17,South,186,0.0,0.0,54,0.00,,---,0.00,VWS V13.01,2013-05-27 07:03:00,
2013-05-27 02:04:00,39.4,24.1,30.17,South,186,0.0,0.0,54,0.00,,---,0.00,VWS V13.01,2013-05-27 07:04:00,
2013-05-27 02:05:00,39.4,24.1,30.17,South,186,0.0,0.0,54,0.00,,---,0.00,VWS V13.01,2013-05-27 07:05:00,
2013-05-27 02:06:00,39.4,24.1,30.17,South,186,0.0,0.0,54,0.00,,---,0.00,VWS V13.01,2013-05-27 07:06:00,
2013-05-27 02:07:00,39.4,24.1,30.17,South,186,0.0,0.0,54,0.00,,---,0.00,VWS V13.01,2013-05-27 07:07:00,
2013-05-27 02:08:00,39.4,24.1,30.17,South,186,0.0,0.0,54,0.00,,---,0.00,VWS V13.01,2013-05-27 07:08:00,
2013-05-27 02:09:00,39.2,24.0,30.17,South,186,0.0,0.0,54,0.00,,---,0.00,VWS V13.01,2013-05-27 07:09:00,
2013-05-27 02:10:00,39.4,24.1,30.17,South,186,0.0,0.0,54,0.00,,---,0.00,VWS V13.01,2013-05-27 07:10:00,
2013-05-27 02:11:00,39.2,24.4,30.14,South,186,0.0,0.0,55,0.00,,---,0.00,VWS V13.01,2013-05-27 07:11:00,
2013-05-27 02:12:00,39.2,24.4,30.14,South,186,0.0,0.0,55,0.00,,---,0.00,VWS V13.01,2013-05-27 07:12:00,
2013-05-27 02:13:00,39.2,24.4,30.14,South,186,0.0,0.0,55,0.00,,---,0.00,VWS V13.01,2013-05-27 07:13:00,
2013-05-27 02:14:00,39.2,24.4,30.14,South,186,0.0,0.0,55,0.00,,---,0.00,VWS V13.01,2013-05-27 07:14:00,
2013-05-27 02:15:00,39.2,24.4,30.14,South,186,0.0,0.0,55,0.00,,---,0.00,VWS V13.01,2013-05-27 07:15:00,
2013-05-27 02:16:00,39.0,24.2,30.14,South,186,0.0,0.0,55,0.00,,---,0.00,VWS V13.01,2013-05-27 07:16:00,
2013-05-27 02:17:00,39.0,24.7,30.14,South,186,0.0,0.0,56,0.00,,---,0.00,VWS V13.01,2013-05-27 07:17:00,
2013-05-27 02:18:00,39.0,24.7,30.14,South,186,0.0,0.0,56,0.00,,---,0.00,VWS V13.01,2013-05-27 07:18:00,
2013-05-27 02:19:00,39.0,24.7,30.14,South,186,0.0,0.0,56,0.00,,---,0.00,VWS V13.01,2013-05-27 07:19:00,
2013-05-27 02:20:00,39.0,24.7,30.14,South,186,0.0,0.0,56,0.00,,---,0.00,VWS V13.01,2013-05-27 07:20:00,
2013-05-27 02:21:00,39.0,24.7,30.14,South,186,0.0,0.0,56,0.00,,---,0.00,VWS V13.01,2013-05-27 07:21:00,
2013-05-27 02:22:00,39.0,24.7,30.14,South,186,0.0,0.0,56,0.00,,---,0.00,VWS V13.01,2013-05-27 07:22:00,
2013-05-27 02:23:00,39.0,24.7,30.14,South,186,0.0,0.0,56,0.00,,---,0.00,VWS V13.01,2013-05-27 07:23:00,
2013-05-27 02:24:00,39.0,24.2,30.14,South,186,0.0,0.0,55,0.00,,---,0.00,VWS V13.01,2013-05-27 07:24:00,
2013-05-27 02:25:00,39.0,24.2,30.14,South,186,0.0,0.0,55,0.00,,---,0.00,VWS V13.01,2013-05-27 07:25:00,
2013-05-27 02:26:00,39.0,24.2,30.14,South,186,0.0,0.0,55,0.00,,---,0.00,VWS V13.01,2013-05-27 07:26:00,
2013-05-27 02:27:00,38.8,24.1,30.14,South,186,0.0,0.0,55,0.00,,---,0.00,VWS V13.01,2013-05-27 07:27:00,
2013-05-27 02:28:00,38.8,24.1,30.14,South,186,0.0,0.0,55,0.00,,---,0.00,VWS V13.01,2013-05-27 07:28:00,
2013-05-27 02:29:00,38.8,24.1,30.14,South,186,0.0,0.0,55,0.00,,---,0.00,VWS V13.01,2013-05-27 07:29:00,
2013-05-27 02:30:00,38.8,24.1,30.14,South,186,0.0,0.0,55,0.00,,---,0.00,VWS V13.01,2013-05-27 07:30:00,
2013-05-27 02:31:00,38.8,24.1,30.14,South,186,0.0,0.0,55,0.00,,---,0.00,VWS V13.01,2013-05-27 07:31:00,
2013-05-27 02:32:00,38.8,24.1,30.14,South,186,0.0,0.0,55,0.00,,---,0.00,VWS V13.01,2013-05-27 07:32:00,
2013-05-27 02:33:00,38.8,24.5,30.14,South,186,0.0,0.0,56,0.00,,---,0.00,VWS V13.01,2013-05-27 07:33:00,
2013-05-27 02:34:00,38.7,24.3,30.14,South,186,0.0,0.0,56,0.00,,---,0.00,VWS V13.01,2013-05-27 07:34:00,
2013-05-27 02:35:00,38.7,24.3,30.14,South,186,0.0,0.0,56,0.00,,---,0.00,VWS V13.01,2013-05-27 07:35:00,
2013-05-27 02:36:00,38.7,24.3,30.14,South,186,0.0,0.0,56,0.00,,---,0.00,VWS V13.01,2013-05-27 07:36:00,
2013-05-27 02:37:00,38.7,24.3,30.14,South,186,0.0,0.0,56,0.00,,---,0.00,VWS V13.01,2013-05-27 07:37:00,
2013-05-27 02:38:00,38.7,24.3,30.14,South,186,0.0,0.0,56,0.00,,---,0.00,VWS V13.01,2013-05-27 07:38:00,
2013-05-27 02:39:00,38.7,24.3,30.14,South,186,0.0,0.0,56,0.00,,---,0.00,VWS V13.01,2013-05-27 07:39:00,
2013-05-27 02:40:00,38.7,24.3,30.14,South,186,0.0,0.0,56,0.00,,---,0.00,VWS V13.01,2013-05-27 07:40:00,
2013-05-27 02:41:00,38.7,24.3,30.14,South,186,0.0,0.0,56,0.00,,---,0.00,VWS V13.01,2013-05-27 07:41:00,
2013-05-27 02:42:00,38.7,24.8,30.14,South,186,0.0,0.0,57,0.00,,---,0.00,VWS V13.01,2013-05-27 07:42:00,
2013-05-27 02:43:00,38.7,24.8,30.14,South,186,0.0,0.0,57,0.00,,---,0.00,VWS V13.01,2013-05-27 07:43:00,
2013-05-27 02:44:00,38.7,24.8,30.14,South,186,0.0,0.0,57,0.00,,---,0.00,VWS V13.01,2013-05-27 07:44:00,
2013-05-27 02:45:00,38.7,25.2,30.14,South,186,0.0,0.0,58,0.00,,---,0.00,VWS V13.01,2013-05-27 07:45:00,
2013-05-27 02:46:00,38.7,24.8,30.14,South,186,0.0,0.0,57,0.00,,---,0.00,VWS V13.01,2013-05-27 07:46:00,
2013-05-27 02:47:00,38.7,25.2,30.14,South,186,0.0,0.0,58,0.00,,---,0.00,VWS V13.01,2013-05-27 07:47:00,
2013-05-27 02:48:00,38.7,25.2,30.14,South,186,0.0,0.0,58,0.00,,---,0.00,VWS V13.01,2013-05-27 07:48:00,
2013-05-27 02:49:00,38.7,25.2,30.14,South,186,0.0,0.0,58,0.00,,---,0.00,VWS V13.01,2013-05-27 07:49:00,
2013-05-27 02:50:00,38.7,25.2,30.14,South,186,0.0,0.0,58,0.00,,---,0.00,VWS V13.01,2013-05-27 07:50:00,
2013-05-27 02:51:00,38.7,25.2,30.14,South,186,0.0,0.0,58,0.00,,---,0.00,VWS V13.01,2013-05-27 07:51:00,
2013-05-27 02:52:00,38.7,25.2,30.14,South,186,0.0,0.0,58,0.00,,---,0.00,VWS V13.01,2013-05-27 07:52:00,
2013-05-27 02:53:00,38.7,25.2,30.14,South,186,0.0,0.0,58,0.00,,---,0.00,VWS V13.01,2013-05-27 07:53:00,
2013-05-27 02:54:00,38.7,25.2,30.14,South,186,0.0,0.0,58,0.00,,---,0.00,VWS V13.01,2013-05-27 07:54:00,
2013-05-27 02:55:00,38.7,25.2,30.14,South,186,0.0,0.0,58,0.00,,---,0.00,VWS V13.01,2013-05-27 07:55:00,
2013-05-27 02:56:00,38.7,25.2,30.14,South,186,0.0,0.0,58,0.00,,---,0.00,VWS V13.01,2013-05-27 07:56:00,
2013-05-27 02:57:00,38.7,25.2,30.14,South,186,0.0,0.0,58,0.00,,---,0.00,VWS V13.01,2013-05-27 07:57:00,
2013-05-27 02:58:00,38.7,25.2,30.14,South,186,0.0,0.0,58,0.00,,---,0.00,VWS V13.01,2013-05-27 07:58:00,
2013-05-27 02:59:00,38.7,25.2,30.14,South,186,0.0,0.0,58,0.00,,---,0.00,VWS V13.01,2013-05-27 07:59:00,
2013-05-27 03:00:00,38.7,25.2,30.14,South,186,0.0,0.0,58,0.00,,---,0.00,VWS V13.01,2013-05-27 08:00:00,
2013-05-27 03:01:00,38.7,25.2,30.14,South,186,0.0,0.0,58,0.00,,---,0.00,VWS V13.01,2013-05-27 08:01:00,
2013-05-27 03:02:00,38.7,25.2,30.14,South,186,0.0,0.0,58,0.00,,---,0.00,VWS V13.01,2013-05-27 08:02:00,
2013-05-27 03:03:00,38.7,25.2,30.14,South,186,0.0,0.0,58,0.00,,---,0.00,VWS V13.01,2013-05-27 08:03:00,
2013-05-27 03:04:00,38.7,25.2,30.14,South,186,0.0,0.0,58,0.00,,---,0.00,VWS V13.01,2013-05-27 08:04:00,
2013-05-27 03:05:00,38.7,25.2,30.14,South,186,0.0,0.0,58,0.00,,---,0.00,VWS V13.01,2013-05-27 08:05:00,
2013-05-27 03:06:00,38.7,25.2,30.14,South,186,0.0,0.0,58,0.00,,---,0.00,VWS V13.01,2013-05-27 08:06:00,
2013-05-27 03:07:00,38.7,25.6,30.14,South,186,0.0,0.0,59,0.00,,---,0.00,VWS V13.01,2013-05-27 08:07:00,
2013-05-27 03:08:00,38.7,25.6,30.14,South,186,0.0,0.0,59,0.00,,---,0.00,VWS V13.01,2013-05-27 08:08:00,
2013-05-27 03:09:00,38.7,25.6,30.14,South,186,0.0,0.0,59,0.00,,---,0.00,VWS V13.01,2013-05-27 08:09:00,
2013-05-27 03:10:00,38.8,25.8,30.14,South,186,0.0,0.0,59,0.00,,---,0.00,VWS V13.01,2013-05-27 08:10:00,
2013-05-27 03:11:00,38.7,25.6,30.14,South,186,0.0,0.0,59,0.00,,---,0.00,VWS V13.01,2013-05-27 08:11:00,
2013-05-27 03:12:00,38.8,25.8,30.14,South,186,0.0,0.0,59,0.00,,---,0.00,VWS V13.01,2013-05-27 08:12:00,
2013-05-27 03:13:00,38.8,25.8,30.14,South,186,0.0,0.0,59,0.00,,---,0.00,VWS V13.01,2013-05-27 08:13:00,
2013-05-27 03:14:00,38.8,25.8,30.14,South,186,0.0,0.0,59,0.00,,---,0.00,VWS V13.01,2013-05-27 08:14:00,
2013-05-27 03:15:00,38.8,25.8,30.14,South,186,0.0,0.0,59,0.00,,---,0.00,VWS V13.01,2013-05-27 08:15:00,
2013-05-27 03:16:00,38.8,25.8,30.14,South,186,0.0,0.0,59,0.00,,---,0.00,VWS V13.01,2013-05-27 08:16:00,
2013-05-27 03:17:00,39.0,25.9,30.14,South,186,0.0,0.0,59,0.00,,---,0.00,VWS V13.01,2013-05-27 08:17:00,
2013-05-27 03:18:00,39.0,25.9,30.14,South,186,0.0,0.0,59,0.00,,---,0.00,VWS V13.01,2013-05-27 08:18:00,
2013-05-27 03:19:00,39.0,25.9,30.14,South,186,0.0,0.0,59,0.00,,---,0.00,VWS V13.01,2013-05-27 08:19:00,
2013-05-27 03:20:00,39.0,25.9,30.14,South,186,0.0,0.0,59,0.00,,---,0.00,VWS V13.01,2013-05-27 08:20:00,
2013-05-27 03:21:00,39.0,25.9,30.14,South,186,0.0,0.0,59,0.00,,---,0.00,VWS V13.01,2013-05-27 08:21:00,
2013-05-27 03:22:00,39.2,26.1,30.14,South,186,0.0,0.0,59,0.00,,---,0.00,VWS V13.01,2013-05-27 08:22:00,
2013-05-27 03:23:00,39.2,26.1,30.14,South,186,0.0,0.0,59,0.00,,---,0.00,VWS V13.01,2013-05-27 08:23:00,
2013-05-27 03:24:00,39.2,26.1,30.14,South,186,0.0,0.0,59,0.00,,---,0.00,VWS V13.01,2013-05-27 08:24:00,
2013-05-27 03:25:00,39.2,26.1,30.14,South,186,0.0,0.0,59,0.00,,---,0.00,VWS V13.01,2013-05-27 08:25:00,
2013-05-27 03:26:00,39.2,26.1,30.14,South,186,0.0,0.0,59,0.00,,---,0.00,VWS V13.01,2013-05-27 08:26:00,
2013-05-27 03:27:00,39.2,26.1,30.14,South,186,0.0,0.0,59,0.00,,---,0.00,VWS V13.01,2013-05-27 08:27:00,
2013-05-27 03:28:00,39.4,26.3,30.14,South,186,0.0,0.0,59,0.00,,---,0.00,VWS V13.01,2013-05-27 08:28:00,
2013-05-27 03:29:00,39.4,26.3,30.14,South,186,0.0,0.0,59,0.00,,---,0.00,VWS V13.01,2013-05-27 08:29:00,
2013-05-27 03:30:00,39.4,26.3,30.14,South,186,0.0,0.0,59,0.00,,---,0.00,VWS V13.01,2013-05-27 08:30:00,
2013-05-27 03:31:00,39.4,26.3,30.14,South,186,0.0,0.0,59,0.00,,---,0.00,VWS V13.01,2013-05-27 08:31:00,
2013-05-27 03:32:00,39.4,26.3,30.14,South,185,0.0,0.0,59,0.00,,---,0.00,VWS V13.01,2013-05-27 08:32:00,
2013-05-27 03:33:00,39.6,26.4,30.14,South,186,0.0,0.0,59,0.00,,---,0.00,VWS V13.01,2013-05-27 08:33:00,
2013-05-27 03:34:00,39.6,26.4,30.14,South,186,0.0,0.0,59,0.00,,---,0.00,VWS V13.01,2013-05-27 08:34:00,
2013-05-27 03:35:00,39.6,26.4,30.14,South,186,0.0,0.0,59,0.00,,---,0.00,VWS V13.01,2013-05-27 08:35:00,
2013-05-27 03:36:00,39.6,26.4,30.14,South,186,0.0,0.0,59,0.00,,---,0.00,VWS V13.01,2013-05-27 08:36:00,
2013-05-27 03:37:00,39.6,26.4,30.14,South,186,0.0,0.0,59,0.00,,---,0.00,VWS V13.01,2013-05-27 08:37:00,
2013-05-27 03:38:00,39.6,26.4,30.14,South,186,0.0,0.0,59,0.00,,---,0.00,VWS V13.01,2013-05-27 08:38:00,
2013-05-27 03:39:00,39.6,26.4,30.14,South,186,0.0,0.0,59,0.00,,---,0.00,VWS V13.01,2013-05-27 08:39:00,
2013-05-27 03:40:00,39.6,26.4,30.14,South,186,0.0,0.0,59,0.00,,---,0.00,VWS V13.01,2013-05-27 08:40:00,
2013-05-27 03:41:00,39.6,26.4,30.14,South,186,0.0,0.0,59,0.00,,---,0.00,VWS V13.01,2013-05-27 08:41:00,
2013-05-27 03:42:00,39.6,26.4,30.14,South,186,0.0,0.0,59,0.00,,---,0.00,VWS V13.01,2013-05-27 08:42:00,
2013-05-27 03:43:00,39.7,26.6,30.14,South,186,0.0,0.0,59,0.00,,---,0.00,VWS V13.01,2013-05-27 08:43:00,
2013-05-27 03:44:00,39.7,27.0,30.14,South,186,0.0,0.0,60,0.00,,---,0.00,VWS V13.01,2013-05-27 08:44:00,
2013-05-27 03:45:00,39.7,27.0,30.14,South,185,0.0,0.0,60,0.00,,---,0.00,VWS V13.01,2013-05-27 08:45:00,
2013-05-27 03:46:00,39.7,26.6,30.14,South,186,0.0,0.0,59,0.00,,---,0.00,VWS V13.01,2013-05-27 08:46:00,
2013-05-27 03:47:00,39.7,27.0,30.14,South,186,0.0,0.0,60,0.00,,---,0.00,VWS V13.01,2013-05-27 08:47:00,
2013-05-27 03:48:00,39.7,26.6,30.14,South,186,0.0,0.0,59,0.00,,---,0.00,VWS V13.01,2013-05-27 08:48:00,
2013-05-27 03:49:00,39.7,26.6,30.14,South,186,0.0,0.0,59,0.00,,---,0.00,VWS V13.01,2013-05-27 08:49:00,
2013-05-27 03:50:00,39.7,26.6,30.14,South,186,0.0,0.0,59,0.00,,---,0.00,VWS V13.01,2013-05-27 08:50:00,
2013-05-27 03:51:00,39.7,26.6,30.14,South,186,0.0,0.0,59,0.00,,---,0.00,VWS V13.01,2013-05-27 08:51:00,
2013-05-27 03:52:00,39.7,26.6,30.14,South,186,0.0,0.0,59,0.00,,---,0.00,VWS V13.01,2013-05-27 08:52:00,
2013-05-27 03:53:00,39.9,26.8,30.14,South,186,0.0,0.0,59,0.00,,---,0.00,VWS V13.01,2013-05-27 08:53:00,
2013-05-27 03:54:00,39.9,26.8,30.14,South,186,0.0,0.0,59,0.00,,---,0.00,VWS V13.01,2013-05-27 08:54:00,
2013-05-27 03:55:00,39.9,26.8,30.14,South,186,0.0,0.0,59,0.00,,---,0.00,VWS V13.01,2013-05-27 08:55:00,
2013-05-27 03:56:00,39.9,26.8,30.14,South,186,0.0,0.0,59,0.00,,---,0.00,VWS V13.01,2013-05-27 08:56:00,
2013-05-27 03:57:00,39.9,26.8,30.14,South,186,0.0,0.0,59,0.00,,---,0.00,VWS V13.01,2013-05-27 08:57:00,
2013-05-27 03:58:00,39.9,26.8,30.14,South,186,0.0,0.0,59,0.00,,---,0.00,VWS V13.01,2013-05-27 08:58:00,
2013-05-27 03:59:00,39.9,26.8,30.14,South,186,0.0,0.0,59,0.00,,---,0.00,VWS V13.01,2013-05-27 08:59:00,
2013-05-27 04:00:00,39.9,26.8,30.14,South,186,0.0,0.0,59,0.00,,---,0.00,VWS V13.01,2013-05-27 09:00:00,
2013-05-27 04:01:00,39.9,26.8,30.14,South,186,0.0,0.0,59,0.00,,---,0.00,VWS V13.01,2013-05-27 09:01:00,
2013-05-27 04:02:00,39.9,26.8,30.14,South,186,0.0,0.0,59,0.00,,---,0.00,VWS V13.01,2013-05-27 09:02:00,
2013-05-27 04:03:00,40.1,26.9,30.14,South,186,0.0,0.0,59,0.00,,---,0.00,VWS V13.01,2013-05-27 09:03:00,
2013-05-27 04:04:00,40.1,26.9,30.14,South,186,0.0,0.0,59,0.00,,---,0.00,VWS V13.01,2013-05-27 09:04:00,
2013-05-27 04:05:00,40.1,26.9,30.14,South,186,0.0,0.0,59,0.00,,---,0.00,VWS V13.01,2013-05-27 09:05:00,
2013-05-27 04:06:00,40.1,26.9,30.14,South,186,0.0,0.0,59,0.00,,---,0.00,VWS V13.01,2013-05-27 09:06:00,
2013-05-27 04:07:00,40.1,26.9,30.14,South,186,0.0,0.0,59,0.00,,---,0.00,VWS V13.01,2013-05-27 09:07:00,
2013-05-27 04:08:00,40.1,26.9,30.14,South,186,0.0,0.0,59,0.00,,---,0.00,VWS V13.01,2013-05-27 09:08:00,
2013-05-27 04:09:00,40.1,26.9,30.14,South,186,0.0,0.0,59,0.00,,---,0.00,VWS V13.01,2013-05-27 09:09:00,
2013-05-27 04:10:00,40.1,26.9,30.14,South,186,0.0,0.0,59,0.00,,---,0.00,VWS V13.01,2013-05-27 09:10:00,
2013-05-27 04:11:00,39.9,26.8,30.14,South,186,0.0,0.0,59,0.00,,---,0.00,VWS V13.01,2013-05-27 09:11:00,
2013-05-27 04:12:00,40.1,26.9,30.14,South,186,0.0,0.0,59,0.00,,---,0.00,VWS V13.01,2013-05-27 09:12:00,
2013-05-27 04:13:00,39.9,26.8,30.14,South,186,0.0,0.0,59,0.00,,---,0.00,VWS V13.01,2013-05-27 09:13:00,
2013-05-27 04:14:00,39.9,26.8,30.14,South,186,0.0,0.0,59,0.00,,---,0.00,VWS V13.01,2013-05-27 09:14:00,
2013-05-27 04:15:00,39.7,26.6,30.14,South,186,0.0,0.0,59,0.00,,---,0.00,VWS V13.01,2013-05-27 09:15:00,
2013-05-27 04:16:00,39.7,26.6,30.14,South,186,0.0,0.0,59,0.00,,---,0.00,VWS V13.01,2013-05-27 09:16:00,
2013-05-27 04:17:00,39.7,26.6,30.14,South,186,0.0,0.0,59,0.00,,---,0.00,VWS V13.01,2013-05-27 09:17:00,
2013-05-27 04:18:00,39.7,26.6,30.14,South,186,0.0,0.0,59,0.00,,---,0.00,VWS V13.01,2013-05-27 09:18:00,
2013-05-27 04:19:00,39.7,27.0,30.14,South,186,0.0,0.0,60,0.00,,---,0.00,VWS V13.01,2013-05-27 09:19:00,
2013-05-27 04:20:00,39.7,27.0,30.14,South,186,0.0,0.0,60,0.00,,---,0.00,VWS V13.01,2013-05-27 09:20:00,
2013-05-27 04:21:00,39.7,27.0,30.14,South,186,0.0,0.0,60,0.00,,---,0.00,VWS V13.01,2013-05-27 09:21:00,
2013-05-27 04:22:00,39.7,27.0,30.14,South,186,0.0,0.0,60,0.00,,---,0.00,VWS V13.01,2013-05-27 09:22:00,
2013-05-27 04:23:00,39.7,27.0,30.14,South,186,0.0,0.0,60,0.00,,---,0.00,VWS V13.01,2013-05-27 09:23:00,
2013-05-27 04:24:00,39.7,27.4,30.14,South,186,0.0,0.0,61,0.00,,---,0.00,VWS V13.01,2013-05-27 09:24:00,
2013-05-27 04:25:00,39.9,27.6,30.11,South,186,0.0,0.0,61,0.00,,---,0.00,VWS V13.01,2013-05-27 09:25:00,
2013-05-27 04:26:00,39.9,28.0,30.11,South,186,0.0,0.0,62,0.00,,---,0.00,VWS V13.01,2013-05-27 09:26:00,
2013-05-27 04:27:00,39.9,28.0,30.11,South,186,0.0,0.0,62,0.00,,---,0.00,VWS V13.01,2013-05-27 09:27:00,
2013-05-27 04:28:00,39.9,28.0,30.11,South,186,0.0,0.0,62,0.00,,---,0.00,VWS V13.01,2013-05-27 09:28:00,
2013-05-27 04:29:00,39.9,28.0,30.11,South,186,0.0,0.0,62,0.00,,---,0.00,VWS V13.01,2013-05-27 09:29:00,
2013-05-27 04:30:00,40.1,28.1,30.11,South,186,0.0,0.0,62,0.00,,---,0.00,VWS V13.01,2013-05-27 09:30:00,
2013-05-27 04:31:00,40.1,27.8,30.11,South,186,0.0,0.0,61,0.00,,---,0.00,VWS V13.01,2013-05-27 09:31:00,
2013-05-27 04:32:00,40.1,27.8,30.11,South,186,0.0,0.0,61,0.00,,---,0.00,VWS V13.01,2013-05-27 09:32:00,
2013-05-27 04:33:00,40.1,27.8,30.11,South,186,0.0,0.0,61,0.00,,---,0.00,VWS V13.01,2013-05-27 09:33:00,
2013-05-27 04:34:00,40.1,27.8,30.11,South,186,0.0,0.0,61,0.00,,---,0.00,VWS V13.01,2013-05-27 09:34:00,
2013-05-27 04:35:00,40.1,27.8,30.11,South,186,0.0,0.0,61,0.00,,---,0.00,VWS V13.01,2013-05-27 09:35:00,
2013-05-27 04:36:00,40.1,27.8,30.11,South,186,0.0,0.0,61,0.00,,---,0.00,VWS V13.01,2013-05-27 09:36:00,
2013-05-27 04:37:00,40.1,27.8,30.11,South,186,0.0,0.0,61,0.00,,---,0.00,VWS V13.01,2013-05-27 09:37:00,
2013-05-27 04:38:00,40.1,27.8,30.11,South,186,0.0,0.0,61,0.00,,---,0.00,VWS V13.01,2013-05-27 09:38:00,
2013-05-27 04:39:00,40.3,27.9,30.11,South,186,0.0,0.0,61,0.00,,---,0.00,VWS V13.01,2013-05-27 09:39:00,
2013-05-27 04:40:00,40.3,27.9,30.11,South,186,0.0,0.0,61,0.00,,---,0.00,VWS V13.01,2013-05-27 09:40:00,
2013-05-27 04:41:00,40.3,27.9,30.11,South,186,0.0,0.0,61,0.00,,---,0.00,VWS V13.01,2013-05-27 09:41:00,
2013-05-27 04:42:00,40.3,28.3,30.11,South,186,0.0,0.0,62,0.00,,---,0.00,VWS V13.01,2013-05-27 09:42:00,
2013-05-27 04:43:00,40.3,27.9,30.11,South,186,0.0,0.0,61,0.00,,---,0.00,VWS V13.01,2013-05-27 09:43:00,
2013-05-27 04:44:00,40.3,28.3,30.11,South,186,0.0,0.0,62,0.00,,---,0.00,VWS V13.01,2013-05-27 09:44:00,
2013-05-27 04:45:00,40.3,28.3,30.11,South,186,0.0,0.0,62,0.00,,---,0.00,VWS V13.01,2013-05-27 09:45:00,
2013-05-27 04:46:00,40.3,28.3,30.11,South,186,0.0,0.0,62,0.00,,---,0.00,VWS V13.01,2013-05-27 09:46:00,
2013-05-27 04:47:00,40.3,28.3,30.11,South,186,0.0,0.0,62,0.00,,---,0.00,VWS V13.01,2013-05-27 09:47:00,
2013-05-27 04:48:00,40.3,28.3,30.11,South,186,0.0,0.0,62,0.00,,---,0.00,VWS V13.01,2013-05-27 09:48:00,
2013-05-27 04:49:00,40.3,27.9,30.11,South,186,0.0,0.0,61,0.00,,---,0.00,VWS V13.01,2013-05-27 09:49:00,
2013-05-27 04:50:00,40.3,27.9,30.11,South,186,0.0,0.0,61,0.00,,---,0.00,VWS V13.01,2013-05-27 09:50:00,
2013-05-27 04:51:00,40.3,27.9,30.11,South,186,0.0,0.0,61,0.00,,---,0.00,VWS V13.01,2013-05-27 09:51:00,
2013-05-27 04:52:00,40.3,27.9,30.11,South,186,0.0,0.0,61,0.00,,---,0.00,VWS V13.01,2013-05-27 09:52:00,
2013-05-27 04:53:00,40.3,27.9,30.11,South,186,0.0,0.0,61,0.00,,---,0.00,VWS V13.01,2013-05-27 09:53:00,
2013-05-27 04:54:00,40.1,27.8,30.11,South,186,0.0,0.0,61,0.00,,---,0.00,VWS V13.01,2013-05-27 09:54:00,
2013-05-27 04:55:00,40.1,27.8,30.14,South,186,0.0,0.0,61,0.00,,---,0.00,VWS V13.01,2013-05-27 09:55:00,
2013-05-27 04:56:00,40.1,27.8,30.14,South,186,0.0,0.0,61,0.00,,---,0.00,VWS V13.01,2013-05-27 09:56:00,
2013-05-27 04:57:00,39.9,28.0,30.14,South,186,0.0,0.0,62,0.00,,---,0.00,VWS V13.01,2013-05-27 09:57:00,
2013-05-27 04:58:00,39.9,28.0,30.14,South,186,0.0,0.0,62,0.00,,---,0.00,VWS V13.01,2013-05-27 09:58:00,
2013-05-27 04:59:00,39.9,28.0,30.14,South,186,0.0,0.0,62,0.00,,---,0.00,VWS V13.01,2013-05-27 09:59:00,
2013-05-27 05:00:00,39.7,27.8,30.14,South,186,0.0,0.0,62,0.00,,---,0.00,VWS V13.01,2013-05-27 10:00:00,
2013-05-27 05:01:00,39.7,27.8,30.14,South,186,0.0,0.0,62,0.00,,---,0.00,VWS V13.01,2013-05-27 10:01:00,
2013-05-27 05:02:00,39.7,27.8,30.14,South,186,0.0,0.0,62,0.00,,---,0.00,VWS V13.01,2013-05-27 10:02:00,
2013-05-27 05:03:00,39.7,27.8,30.14,South,186,0.0,0.0,62,0.00,,---,0.00,VWS V13.01,2013-05-27 10:03:00,
2013-05-27 05:04:00,39.6,27.6,30.14,South,186,0.0,0.0,62,0.00,,---,0.00,VWS V13.01,2013-05-27 10:04:00,
2013-05-27 05:05:00,39.4,27.5,30.14,South,186,0.0,0.0,62,0.00,,---,0.00,VWS V13.01,2013-05-27 10:05:00,
2013-05-27 05:06:00,39.4,27.5,30.14,South,186,0.0,0.0,62,0.00,,---,0.00,VWS V13.01,2013-05-27 10:06:00,
2013-05-27 05:07:00,39.4,27.5,30.14,South,186,0.0,0.0,62,0.00,,---,0.00,VWS V13.01,2013-05-27 10:07:00,
2013-05-27 05:08:00,39.4,27.5,30.14,South,186,0.0,0.0,62,0.00,,---,0.00,VWS V13.01,2013-05-27 10:08:00,
2013-05-27 05:09:00,39.4,27.5,30.14,South,186,0.0,0.0,62,0.00,,---,0.00,VWS V13.01,2013-05-27 10:09:00,
2013-05-27 05:10:00,39.2,27.3,30.11,South,186,0.0,0.0,62,0.00,,---,0.00,VWS V13.01,2013-05-27 10:10:00,
2013-05-27 05:11:00,39.2,27.3,30.11,South,186,0.0,0.0,62,0.00,,---,0.00,VWS V13.01,2013-05-27 10:11:00,
2013-05-27 05:12:00,39.2,27.3,30.11,South,186,0.0,0.0,62,0.00,,---,0.00,VWS V13.01,2013-05-27 10:12:00,
2013-05-27 05:13:00,39.0,27.5,30.11,South,186,0.0,0.0,63,0.00,,---,0.00,VWS V13.01,2013-05-27 10:13:00,
2013-05-27 05:14:00,39.2,27.3,30.11,South,186,0.0,0.0,62,0.00,,---,0.00,VWS V13.01,2013-05-27 10:14:00,
2013-05-27 05:15:00,39.0,27.5,30.11,South,186,0.0,0.0,63,0.00,,---,0.00,VWS V13.01,2013-05-27 10:15:00,
2013-05-27 05:16:00,38.8,27.3,30.11,South,186,0.0,0.0,63,0.00,,---,0.00,VWS V13.01,2013-05-27 10:16:00,
2013-05-27 05:17:00,38.8,27.7,30.11,South,186,0.0,0.0,64,0.00,,---,0.00,VWS V13.01,2013-05-27 10:17:00,
2013-05-27 05:18:00,38.8,27.7,30.11,South,186,0.0,0.0,64,0.00,,---,0.00,VWS V13.01,2013-05-27 10:18:00,
2013-05-27 05:19:00,38.8,27.3,30.11,South,186,0.0,0.0,63,0.00,,---,0.00,VWS V13.01,2013-05-27 10:19:00,
2013-05-27 05:20:00,38.8,27.7,30.11,South,186,0.0,0.0,64,0.00,,---,0.00,VWS V13.01,2013-05-27 10:20:00,
2013-05-27 05:21:00,38.7,27.5,30.11,South,186,0.0,0.0,64,0.00,,---,0.00,VWS V13.01,2013-05-27 10:21:00,
2013-05-27 05:22:00,38.7,27.5,30.11,South,186,0.0,0.0,64,0.00,,---,0.00,VWS V13.01,2013-05-27 10:22:00,
2013-05-27 05:23:00,38.7,27.5,30.11,South,186,0.0,0.0,64,0.00,,---,0.00,VWS V13.01,2013-05-27 10:23:00,
2013-05-27 05:24:00,38.7,27.5,30.11,South,186,0.0,0.0,64,0.00,,---,0.00,VWS V13.01,2013-05-27 10:24:00,
2013-05-27 05:25:00,38.7,27.5,30.11,South,186,0.0,0.0,64,0.00,,---,0.00,VWS V13.01,2013-05-27 10:25:00,
2013-05-27 05:26:00,38.7,27.9,30.11,South,186,0.0,0.0,65,0.00,,---,0.00,VWS V13.01,2013-05-27 10:26:00,
2013-05-27 05:27:00,38.7,27.9,30.11,South,186,0.0,0.0,65,0.00,,---,0.00,VWS V13.01,2013-05-27 10:27:00,
2013-05-27 05:28:00,38.5,27.8,30.11,South,186,0.0,0.0,65,0.00,,---,0.00,VWS V13.01,2013-05-27 10:28:00,
2013-05-27 05:29:00,38.7,27.9,30.11,South,186,0.0,0.0,65,0.00,,---,0.00,VWS V13.01,2013-05-27 10:29:00,
2013-05-27 05:30:00,38.5,28.1,30.11,South,186,0.0,0.0,66,0.00,,---,0.00,VWS V13.01,2013-05-27 10:30:00,
2013-05-27 05:31:00,38.5,28.5,30.11,South,186,0.0,0.0,67,0.00,,---,0.00,VWS V13.01,2013-05-27 10:31:00,
2013-05-27 05:32:00,38.5,28.5,30.11,South,186,0.0,0.0,67,0.00,,---,0.00,VWS V13.01,2013-05-27 10:32:00,
2013-05-27 05:33:00,38.5,28.5,30.11,South,186,0.0,0.0,67,0.00,,---,0.00,VWS V13.01,2013-05-27 10:33:00,
2013-05-27 05:34:00,38.5,28.5,30.11,South,186,0.0,0.0,67,0.00,,---,0.00,VWS V13.01,2013-05-27 10:34:00,
2013-05-27 05:35:00,38.5,28.5,30.11,South,186,0.0,0.0,67,0.00,,---,0.00,VWS V13.01,2013-05-27 10:35:00,
2013-05-27 05:36:00,38.5,28.5,30.11,South,186,0.0,0.0,67,0.00,,---,0.00,VWS V13.01,2013-05-27 10:36:00,
2013-05-27 05:37:00,38.5,28.9,30.11,South,186,0.0,0.0,68,0.00,,---,0.00,VWS V13.01,2013-05-27 10:37:00,
2013-05-27 05:38:00,38.5,28.9,30.11,South,186,0.0,0.0,68,0.00,,---,0.00,VWS V13.01,2013-05-27 10:38:00,
2013-05-27 05:39:00,38.5,28.9,30.11,South,186,0.0,0.0,68,0.00,,---,0.00,VWS V13.01,2013-05-27 10:39:00,
2013-05-27 05:40:00,38.7,29.0,30.14,South,186,0.0,0.0,68,0.00,,---,0.00,VWS V13.01,2013-05-27 10:40:00,
2013-05-27 05:41:00,38.7,29.0,30.14,South,186,0.0,0.0,68,0.00,,---,0.00,VWS V13.01,2013-05-27 10:41:00,
2013-05-27 05:42:00,38.7,29.0,30.14,South,186,0.0,0.0,68,0.00,,---,0.00,VWS V13.01,2013-05-27 10:42:00,
2013-05-27 05:43:00,38.7,29.0,30.14,South,186,0.0,0.0,68,0.00,,---,0.00,VWS V13.01,2013-05-27 10:43:00,
2013-05-27 05:44:00,38.7,29.0,30.14,South,186,0.0,0.0,68,0.00,,---,0.00,VWS V13.01,2013-05-27 10:44:00,
2013-05-27 05:45:00,38.7,29.0,30.14,South,186,0.0,0.0,68,0.00,,---,0.00,VWS V13.01,2013-05-27 10:45:00,
2013-05-27 05:46:00,38.7,29.0,30.14,South,186,0.0,0.0,68,0.00,,---,0.00,VWS V13.01,2013-05-27 10:46:00,
2013-05-27 05:47:00,38.7,29.0,30.14,South,186,0.0,0.0,68,0.00,,---,0.00,VWS V13.01,2013-05-27 10:47:00,
2013-05-27 05:48:00,38.7,29.0,30.14,South,186,0.0,0.0,68,0.00,,---,0.00,VWS V13.01,2013-05-27 10:48:00,
2013-05-27 05:49:00,38.7,29.0,30.14,South,186,0.0,0.0,68,0.00,,---,0.00,VWS V13.01,2013-05-27 10:49:00,
2013-05-27 05:50:00,38.8,29.2,30.14,South,186,0.0,0.0,68,0.00,,---,0.00,VWS V13.01,2013-05-27 10:50:00,
2013-05-27 05:51:00,38.8,29.2,30.14,South,186,0.0,0.0,68,0.00,,---,0.00,VWS V13.01,2013-05-27 10:51:00,
2013-05-27 05:52:00,38.8,29.2,30.14,South,186,0.0,0.0,68,0.00,,---,0.00,VWS V13.01,2013-05-27 10:52:00,
2013-05-27 05:53:00,38.8,29.2,30.14,South,186,0.0,0.0,68,0.00,,---,0.00,VWS V13.01,2013-05-27 10:53:00,
2013-05-27 05:54:00,38.8,29.2,30.14,South,186,0.0,0.0,68,0.00,,---,0.00,VWS V13.01,2013-05-27 10:54:00,
2013-05-27 05:55:00,38.8,29.2,30.14,South,186,0.0,0.0,68,0.00,,---,0.00,VWS V13.01,2013-05-27 10:55:00,
2013-05-27 05:56:00,38.8,29.2,30.14,South,186,0.0,0.0,68,0.00,,---,0.00,VWS V13.01,2013-05-27 10:56:00,
2013-05-27 05:57:00,38.8,29.2,30.14,South,186,0.0,0.0,68,0.00,,---,0.00,VWS V13.01,2013-05-27 10:57:00,
2013-05-27 05:58:00,38.8,29.2,30.14,South,186,0.0,0.0,68,0.00,,---,0.00,VWS V13.01,2013-05-27 10:58:00,
2013-05-27 05:59:00,38.8,29.2,30.14,South,186,0.0,0.0,68,0.00,,---,0.00,VWS V13.01,2013-05-27 10:59:00,
2013-05-27 06:00:00,38.8,29.2,30.14,South,186,0.0,0.0,68,0.00,,---,0.00,VWS V13.01,2013-05-27 11:00:00,
2013-05-27 06:01:00,38.8,29.2,30.14,South,186,0.0,0.0,68,0.00,,---,0.00,VWS V13.01,2013-05-27 11:01:00,
2013-05-27 06:02:00,39.0,29.4,30.14,South,186,0.0,0.0,68,0.00,,---,0.00,VWS V13.01,2013-05-27 11:02:00,
2013-05-27 06:03:00,39.0,29.4,30.14,South,186,0.0,0.0,68,0.00,,---,0.00,VWS V13.01,2013-05-27 11:03:00,
2013-05-27 06:04:00,38.8,29.2,30.14,South,186,0.0,0.0,68,0.00,,---,0.00,VWS V13.01,2013-05-27 11:04:00,
2013-05-27 06:05:00,39.0,29.4,30.14,South,186,0.0,0.0,68,0.00,,---,0.00,VWS V13.01,2013-05-27 11:05:00,
2013-05-27 06:06:00,39.0,29.4,30.14,South,186,0.0,0.0,68,0.00,,---,0.00,VWS V13.01,2013-05-27 11:06:00,
2013-05-27 06:07:00,39.0,29.4,30.14,South,186,0.0,0.0,68,0.00,,---,0.00,VWS V13.01,2013-05-27 11:07:00,
2013-05-27 06:08:00,39.2,29.5,30.14,South,186,0.0,0.0,68,0.00,,---,0.00,VWS V13.01,2013-05-27 11:08:00,
2013-05-27 06:09:00,39.2,29.5,30.14,South,186,0.0,0.0,68,0.00,,---,0.00,VWS V13.01,2013-05-27 11:09:00,
2013-05-27 06:10:00,39.2,29.5,30.14,South,186,0.0,0.0,68,0.00,,---,0.00,VWS V13.01,2013-05-27 11:10:00,
2013-05-27 06:11:00,39.4,29.7,30.14,South,186,0.0,0.0,68,0.00,,---,0.00,VWS V13.01,2013-05-27 11:11:00,
2013-05-27 06:12:00,39.4,29.7,30.14,South,186,0.0,0.0,68,0.00,,---,0.00,VWS V13.01,2013-05-27 11:12:00,
2013-05-27 06:13:00,39.4,29.7,30.14,South,186,0.0,0.0,68,0.00,,---,0.00,VWS V13.01,2013-05-27 11:13:00,
2013-05-27 06:14:00,39.4,29.7,30.14,South,186,0.0,0.0,68,0.00,,---,0.00,VWS V13.01,2013-05-27 11:14:00,
2013-05-27 06:15:00,39.6,30.2,30.14,South,186,0.0,0.0,69,0.00,,---,0.00,VWS V13.01,2013-05-27 11:15:00,
2013-05-27 06:16:00,39.7,30.4,30.14,South,186,0.0,0.0,69,0.00,,---,0.00,VWS V13.01,2013-05-27 11:16:00,
2013-05-27 06:17:00,39.7,30.4,30.14,South,186,0.0,0.0,69,0.00,,---,0.00,VWS V13.01,2013-05-27 11:17:00,
2013-05-27 06:18:00,39.7,30.4,30.14,South,186,0.0,0.0,69,0.00,,---,0.00,VWS V13.01,2013-05-27 11:18:00,
2013-05-27 06:19:00,39.7,30.1,30.14,South,186,0.0,0.0,68,0.00,,---,0.00,VWS V13.01,2013-05-27 11:19:00,
2013-05-27 06:20:00,39.7,30.4,30.14,South,186,0.0,0.0,69,0.00,,---,0.00,VWS V13.01,2013-05-27 11:20:00,
2013-05-27 06:21:00,39.9,30.2,30.14,South,186,0.0,0.0,68,0.00,,---,0.00,VWS V13.01,2013-05-27 11:21:00,
2013-05-27 06:22:00,39.9,30.2,30.14,South,186,0.0,0.0,68,0.00,,---,0.00,VWS V13.01,2013-05-27 11:22:00,
2013-05-27 06:23:00,39.9,30.2,30.14,South,186,0.0,0.0,68,0.00,,---,0.00,VWS V13.01,2013-05-27 11:23:00,
2013-05-27 06:24:00,39.9,30.2,30.14,South,186,0.0,0.0,68,0.00,,---,0.00,VWS V13.01,2013-05-27 11:24:00,
2013-05-27 06:25:00,39.9,30.2,30.14,South,186,0.0,0.0,68,0.00,,---,0.00,VWS V13.01,2013-05-27 11:25:00,
2013-05-27 06:26:00,40.1,30.4,30.14,South,186,0.0,0.0,68,0.00,,---,0.00,VWS V13.01,2013-05-27 11:26:00,
2013-05-27 06:27:00,40.1,30.4,30.14,South,186,0.0,0.0,68,0.00,,---,0.00,VWS V13.01,2013-05-27 11:27:00,
2013-05-27 06:28:00,40.3,30.6,30.14,South,186,0.0,0.0,68,0.00,,---,0.00,VWS V13.01,2013-05-27 11:28:00,
2013-05-27 06:29:00,40.3,30.6,30.14,South,186,0.0,0.0,68,0.00,,---,0.00,VWS V13.01,2013-05-27 11:29:00,
2013-05-27 06:30:00,40.1,30.4,30.14,South,186,0.0,0.0,68,0.00,,---,0.00,VWS V13.01,2013-05-27 11:30:00,
2013-05-27 06:31:00,40.5,30.8,30.14,South,186,0.0,0.0,68,0.00,,---,0.00,VWS V13.01,2013-05-27 11:31:00,
2013-05-27 06:32:00,40.5,31.1,30.14,South,186,0.0,0.0,69,0.00,,---,0.00,VWS V13.01,2013-05-27 11:32:00,
2013-05-27 06:33:00,40.5,31.1,30.14,South,186,0.0,0.0,69,0.00,,---,0.00,VWS V13.01,2013-05-27 11:33:00,
2013-05-27 06:34:00,40.6,31.3,30.14,South,186,0.0,0.0,69,0.00,,---,0.00,VWS V13.01,2013-05-27 11:34:00,
2013-05-27 06:35:00,40.5,31.1,30.14,South,186,0.0,0.0,69,0.00,,---,0.00,VWS V13.01,2013-05-27 11:35:00,
2013-05-27 06:36:00,40.8,31.5,30.14,NNE,32,0.0,0.0,69,0.00,,---,0.00,VWS V13.01,2013-05-27 11:36:00,
2013-05-27 06:37:00,41.0,31.6,30.14,NNE,32,0.0,0.0,69,0.00,,---,0.00,VWS V13.01,2013-05-27 11:37:00,
2013-05-27 06:38:00,41.0,31.6,30.14,NE,38,0.0,0.0,69,0.00,,---,0.00,VWS V13.01,2013-05-27 11:38:00,
2013-05-27 06:39:00,41.2,31.8,30.14,NE,52,0.0,0.0,69,0.00,,---,0.00,VWS V13.01,2013-05-27 11:39:00,
2013-05-27 06:40:00,41.0,31.6,30.14,NNE,32,0.0,0.0,69,0.00,,---,0.00,VWS V13.01,2013-05-27 11:40:00,
2013-05-27 06:41:00,41.5,32.1,30.14,NE,52,0.0,0.0,69,0.00,,---,0.00,VWS V13.01,2013-05-27 11:41:00,
2013-05-27 06:42:00,41.7,32.3,30.14,NE,52,0.0,0.0,69,0.00,,---,0.00,VWS V13.01,2013-05-27 11:42:00,
2013-05-27 06:43:00,41.7,32.3,30.14,NE,52,0.0,0.0,69,0.00,,---,0.00,VWS V13.01,2013-05-27 11:43:00,
2013-05-27 06:44:00,42.1,32.7,30.14,East,83,0.0,0.0,69,0.00,,---,0.00,VWS V13.01,2013-05-27 11:44:00,
2013-05-27 06:45:00,41.7,32.3,30.14,NE,52,0.0,0.0,69,0.00,,---,0.00,VWS V13.01,2013-05-27 11:45:00,
2013-05-27 06:46:00,42.3,32.5,30.14,ENE,60,0.0,0.0,68,0.00,,---,0.00,VWS V13.01,2013-05-27 11:46:00,
2013-05-27 06:47:00,42.4,32.6,30.14,ENE,60,0.0,0.0,68,0.00,,---,0.00,VWS V13.01,2013-05-27 11:47:00,
2013-05-27 06:48:00,42.4,32.6,30.14,ENE,60,0.0,0.0,68,0.00,,---,0.00,VWS V13.01,2013-05-27 11:48:00,
2013-05-27 06:49:00,42.6,32.8,30.14,ENE,61,0.0,0.0,68,0.00,,---,0.00,VWS V13.01,2013-05-27 11:49:00,
2013-05-27 06:50:00,42.4,32.6,30.14,ENE,60,0.0,0.0,68,0.00,,---,0.00,VWS V13.01,2013-05-27 11:50:00,
2013-05-27 06:51:00,43.0,32.8,30.14,NE,48,0.0,0.0,67,0.00,,---,0.00,VWS V13.01,2013-05-27 11:51:00,
2013-05-27 06:52:00,43.3,33.1,30.14,NE,48,3.6,4.5,67,0.00,,---,0.00,VWS V13.01,2013-05-27 11:52:00,
2013-05-27 06:53:00,43.3,33.1,30.14,NE,48,3.6,4.0,67,0.00,,---,0.00,VWS V13.01,2013-05-27 11:53:00,
2013-05-27 06:54:00,43.5,32.9,30.14,NE,48,4.0,4.0,66,0.00,,---,0.00,VWS V13.01,2013-05-27 11:54:00,
2013-05-27 06:55:00,43.3,33.1,30.14,NE,48,3.6,4.0,67,0.00,,---,0.00,VWS V13.01,2013-05-27 11:55:00,
2013-05-27 06:56:00,44.1,33.1,30.14,NE,48,0.0,3.6,65,0.00,,---,0.00,VWS V13.01,2013-05-27 11:56:00,
2013-05-27 06:57:00,44.2,32.8,30.14,NE,48,0.0,0.0,64,0.00,,---,0.00,VWS V13.01,2013-05-27 11:57:00,
2013-05-27 06:58:00,44.2,32.5,30.14,NE,49,0.0,0.0,63,0.00,,---,0.00,VWS V13.01,2013-05-27 11:58:00,
2013-05-27 06:59:00,44.6,32.4,30.14,East,81,0.0,0.0,62,0.00,,---,0.00,VWS V13.01,2013-05-27 11:59:00,
2013-05-27 07:00:00,44.4,32.6,30.14,NE,49,0.0,0.0,63,0.00,,---,0.00,VWS V13.01,2013-05-27 12:00:00,
2013-05-27 07:01:00,44.8,32.2,30.14,ENE,62,0.0,0.0,61,0.00,,---,0.00,VWS V13.01,2013-05-27 12:01:00,
2013-05-27 07:02:00,45.0,32.3,30.14,ENE,62,0.0,0.0,61,0.00,,---,0.00,VWS V13.01,2013-05-27 12:02:00,
2013-05-27 07:03:00,45.1,32.1,30.14,NE,44,4.0,4.0,60,0.00,,---,0.00,VWS V13.01,2013-05-27 12:03:00,
2013-05-27 07:04:00,45.1,32.1,30.14,NE,44,0.0,4.0,60,0.00,,---,0.00,VWS V13.01,2013-05-27 12:04:00,
2013-05-27 07:05:00,45.3,31.9,30.14,NE,44,0.0,0.0,59,0.00,,---,0.00,VWS V13.01,2013-05-27 12:05:00,
2013-05-27 07:06:00,45.1,32.1,30.14,NE,44,3.6,4.0,60,0.00,,---,0.00,VWS V13.01,2013-05-27 12:06:00,
2013-05-27 07:07:00,45.7,32.2,30.14,ENE,57,0.0,0.0,59,0.00,,---,0.00,VWS V13.01,2013-05-27 12:07:00,
2013-05-27 07:08:00,45.9,31.9,30.14,NE,53,3.6,4.0,58,0.00,,---,0.00,VWS V13.01,2013-05-27 12:08:00,
2013-05-27 07:09:00,46.0,32.1,30.14,NE,53,2.7,3.6,58,0.00,,---,0.00,VWS V13.01,2013-05-27 12:09:00,
2013-05-27 07:10:00,46.2,31.8,30.14,East,95,2.7,3.6,57,0.00,,---,0.00,VWS V13.01,2013-05-27 12:10:00,
2013-05-27 07:11:00,45.9,31.9,30.14,NE,53,3.1,3.6,58,0.00,,---,0.00,VWS V13.01,2013-05-27 12:11:00,
2013-05-27 07:12:00,46.6,31.7,30.14,ENE,60,0.0,3.6,56,0.00,,---,0.00,VWS V13.01,2013-05-27 12:12:00,
2013-05-27 07:13:00,46.8,31.9,30.14,ENE,60,0.0,0.0,56,0.00,,---,0.00,VWS V13.01,2013-05-27 12:13:00,
2013-05-27 07:14:00,46.9,32.1,30.14,ENE,60,0.0,0.0,56,0.00,,---,0.00,VWS V13.01,2013-05-27 12:14:00,
2013-05-27 07:15:00,47.1,31.8,30.14,ENE,60,0.0,0.0,55,0.00,,---,0.00,VWS V13.01,2013-05-27 12:15:00,
2013-05-27 07:16:00,46.9,32.1,30.14,ENE,60,0.0,0.0,56,0.00,,---,0.00,VWS V13.01,2013-05-27 12:16:00,
2013-05-27 07:17:00,47.3,32.0,30.14,East,81,0.0,0.0,55,0.00,,---,0.00,VWS V13.01,2013-05-27 12:17:00,
2013-05-27 07:18:00,47.5,31.7,30.14,East,81,0.0,0.0,54,0.00,,---,0.00,VWS V13.01,2013-05-27 12:18:00,
2013-05-27 07:19:00,47.5,31.7,30.14,ENE,77,0.0,0.0,54,0.00,,---,0.00,VWS V13.01,2013-05-27 12:19:00,
2013-05-27 07:20:00,47.7,31.4,30.14,ENE,77,0.0,0.0,53,0.00,,---,0.00,VWS V13.01,2013-05-27 12:20:00,
2013-05-27 07:21:00,47.5,31.7,30.14,East,81,0.0,0.0,54,0.00,,---,0.00,VWS V13.01,2013-05-27 12:21:00,
2013-05-27 07:22:00,47.8,31.1,30.14,ENE,70,3.6,3.6,52,0.00,,---,0.00,VWS V13.01,2013-05-27 12:22:00,
2013-05-27 07:23:00,47.8,31.1,30.14,ENE,70,0.0,3.6,52,0.00,,---,0.00,VWS V13.01,2013-05-27 12:23:00,
2013-05-27 07:24:00,48.0,30.8,30.14,ENE,70,0.0,0.0,51,0.00,,---,0.00,VWS V13.01,2013-05-27 12:24:00,
2013-05-27 07:25:00,48.0,30.8,30.14,East,85,0.0,0.0,51,0.00,,---,0.00,VWS V13.01,2013-05-27 12:25:00,
2013-05-27 07:26:00,48.0,31.2,30.14,ENE,70,0.0,0.0,52,0.00,,---,0.00,VWS V13.01,2013-05-27 12:26:00,
2013-05-27 07:27:00,48.4,30.6,30.14,ENE,64,0.0,0.0,50,0.00,,---,0.00,VWS V13.01,2013-05-27 12:27:00,
2013-05-27 07:28:00,48.4,30.6,30.14,ENE,58,0.0,0.0,50,0.00,,---,0.00,VWS V13.01,2013-05-27 12:28:00,
2013-05-27 07:29:00,48.6,30.3,30.14,ENE,58,0.0,0.0,49,0.00,,---,0.00,VWS V13.01,2013-05-27 12:29:00,
2013-05-27 07:30:00,48.6,30.3,30.14,ENE,58,0.0,0.0,49,0.00,,---,0.00,VWS V13.01,2013-05-27 12:30:00,
2013-05-27 07:31:00,48.4,30.1,30.14,ENE,58,0.0,0.0,49,0.00,,---,0.00,VWS V13.01,2013-05-27 12:31:00,
2013-05-27 07:32:00,48.7,30.5,30.14,East,87,0.0,0.0,49,0.00,,---,0.00,VWS V13.01,2013-05-27 12:32:00,
2013-05-27 07:33:00,48.7,30.5,30.14,East,87,0.0,0.0,49,0.00,,---,0.00,VWS V13.01,2013-05-27 12:33:00,
2013-05-27 07:34:00,48.7,30.5,30.14,NE,50,4.5,4.5,49,0.00,,---,0.00,VWS V13.01,2013-05-27 12:34:00,
2013-05-27 07:35:00,48.9,30.6,30.14,NE,51,0.0,4.5,49,0.00,,---,0.00,VWS V13.01,2013-05-27 12:35:00,
2013-05-27 07:36:00,48.9,30.6,30.14,NE,51,0.0,4.5,49,0.00,,---,0.00,VWS V13.01,2013-05-27 12:36:00,
2013-05-27 07:37:00,49.1,30.8,30.14,East,101,0.0,0.0,49,0.00,,---,0.00,VWS V13.01,2013-05-27 12:37:00,
2013-05-27 07:38:00,49.1,30.3,30.14,NE,40,0.0,0.0,48,0.00,,---,0.00,VWS V13.01,2013-05-27 12:38:00,
2013-05-27 07:39:00,49.3,30.4,30.14,ENE,68,0.0,0.0,48,0.00,,---,0.00,VWS V13.01,2013-05-27 12:39:00,
2013-05-27 07:40:00,49.3,30.4,30.14,ENE,68,0.0,0.0,48,0.00,,---,0.00,VWS V13.01,2013-05-27 12:40:00,
2013-05-27 07:41:00,49.3,30.4,30.14,ENE,68,0.0,0.0,48,0.00,,---,0.00,VWS V13.01,2013-05-27 12:41:00,
2013-05-27 07:42:00,49.5,30.6,30.14,NE,49,0.0,0.0,48,0.00,,---,0.00,VWS V13.01,2013-05-27 12:42:00,
2013-05-27 07:43:00,49.5,30.6,30.14,NE,54,0.0,0.0,48,0.00,,---,0.00,VWS V13.01,2013-05-27 12:43:00,
2013-05-27 07:44:00,49.6,30.8,30.14,ENE,68,0.0,0.0,48,0.00,,---,0.00,VWS V13.01,2013-05-27 12:44:00,
2013-05-27 07:45:00,49.6,30.2,30.14,ENE,68,0.0,0.0,47,0.00,,---,0.00,VWS V13.01,2013-05-27 12:45:00,
2013-05-27 07:46:00,49.6,30.2,30.14,ENE,68,0.0,0.0,47,0.00,,---,0.00,VWS V13.01,2013-05-27 12:46:00,
2013-05-27 07:47:00,49.8,30.4,30.14,East,91,3.1,3.1,47,0.00,,---,0.00,VWS V13.01,2013-05-27 12:47:00,
2013-05-27 07:48:00,49.8,30.4,30.14,East,88,3.6,4.0,47,0.00,,---,0.00,VWS V13.01,2013-05-27 12:48:00,
2013-05-27 07:49:00,50.0,30.6,30.14,ENE,62,3.1,4.0,47,0.00,,---,0.00,VWS V13.01,2013-05-27 12:49:00,
2013-05-27 07:50:00,50.0,30.0,30.14,SE,133,2.7,3.1,46,0.00,,---,0.00,VWS V13.01,2013-05-27 12:50:00,
2013-05-27 07:51:00,50.0,30.0,30.14,SE,133,2.7,3.1,46,0.00,,---,0.00,VWS V13.01,2013-05-27 12:51:00,
2013-05-27 07:52:00,50.2,30.2,30.14,East,85,4.0,4.0,46,0.00,,---,0.00,VWS V13.01,2013-05-27 12:52:00,
2013-05-27 07:53:00,50.2,30.2,30.14,ENE,70,3.6,4.0,46,0.00,,---,0.00,VWS V13.01,2013-05-27 12:53:00,
2013-05-27 07:54:00,50.4,30.4,30.14,ENE,73,3.6,4.0,46,0.00,,---,0.00,VWS V13.01,2013-05-27 12:54:00,
2013-05-27 07:55:00,50.4,30.4,30.14,NE,36,2.7,3.6,46,0.00,,---,0.00,VWS V13.01,2013-05-27 12:55:00,
2013-05-27 07:56:00,50.4,30.4,30.14,NE,36,2.7,3.6,46,0.00,,---,0.00,VWS V13.01,2013-05-27 12:56:00,
2013-05-27 07:57:00,50.5,30.5,30.14,ENE,73,4.0,4.0,46,0.00,,---,0.00,VWS V13.01,2013-05-27 12:57:00,
2013-05-27 07:58:00,50.7,30.7,30.14,ENE,60,3.1,4.5,46,0.00,,---,0.00,VWS V13.01,2013-05-27 12:58:00,
2013-05-27 07:59:00,50.7,30.2,30.14,ENE,61,2.7,3.1,45,0.00,,---,0.00,VWS V13.01,2013-05-27 12:59:00,
2013-05-27 08:00:00,50.7,30.2,30.14,ENE,65,3.1,3.6,45,0.00,,---,0.00,VWS V13.01,2013-05-27 13:00:00,
2013-05-27 08:01:00,50.7,30.2,30.14,ENE,65,3.1,3.6,45,0.00,,---,0.00,VWS V13.01,2013-05-27 13:01:00,
2013-05-27 08:02:00,50.9,30.3,30.14,NE,46,4.5,4.7,45,0.00,,---,0.00,VWS V13.01,2013-05-27 13:02:00,
2013-05-27 08:03:00,50.9,30.3,30.14,ENE,59,3.1,4.7,45,0.00,,---,0.00,VWS V13.01,2013-05-27 13:03:00,
2013-05-27 08:04:00,50.9,29.8,30.14,ENE,60,2.7,3.6,44,0.00,,---,0.00,VWS V13.01,2013-05-27 13:04:00,
2013-05-27 08:05:00,51.1,29.9,30.14,NE,34,2.7,4.0,44,0.00,,---,0.00,VWS V13.01,2013-05-27 13:05:00,
2013-05-27 08:06:00,51.1,30.0,30.14,NE,34,2.7,4.0,44,0.00,,---,0.00,VWS V13.01,2013-05-27 13:06:00,
2013-05-27 08:07:00,51.1,30.5,30.14,NE,46,0.0,0.0,45,0.00,,---,0.00,VWS V13.01,2013-05-27 13:07:00,
2013-05-27 08:08:00,51.1,30.5,30.14,NE,46,0.0,0.0,45,0.00,,---,0.00,VWS V13.01,2013-05-27 13:08:00,
2013-05-27 08:09:00,51.1,30.5,30.14,ENE,73,0.0,0.0,45,0.00,,---,0.00,VWS V13.01,2013-05-27 13:09:00,
2013-05-27 08:10:00,51.3,30.7,30.14,ENE,57,0.0,0.0,45,0.00,,---,0.00,VWS V13.01,2013-05-27 13:10:00,
2013-05-27 08:11:00,51.3,30.7,30.14,ENE,57,0.0,0.0,45,0.00,,---,0.00,VWS V13.01,2013-05-27 13:11:00,
2013-05-27 08:12:00,51.3,30.7,30.14,ENE,59,0.0,0.0,45,0.00,,---,0.00,VWS V13.01,2013-05-27 13:12:00,
2013-05-27 08:13:00,51.4,30.8,30.14,ENE,60,3.1,4.7,45,0.00,,---,0.00,VWS V13.01,2013-05-27 13:13:00,
2013-05-27 08:14:00,51.4,30.8,30.14,NE,36,4.5,4.5,45,0.00,,---,0.00,VWS V13.01,2013-05-27 13:14:00,
2013-05-27 08:15:00,51.6,30.4,30.14,East,101,4.0,4.5,44,0.00,,---,0.00,VWS V13.01,2013-05-27 13:15:00,
2013-05-27 08:16:00,51.6,30.4,30.14,East,101,4.0,4.5,44,0.00,,---,0.00,VWS V13.01,2013-05-27 13:16:00,
2013-05-27 08:17:00,51.6,30.4,30.14,ENE,59,0.0,3.6,44,0.00,,---,0.00,VWS V13.01,2013-05-27 13:17:00,
2013-05-27 08:18:00,51.6,29.9,30.14,NE,55,3.1,4.0,43,0.00,,---,0.00,VWS V13.01,2013-05-27 13:18:00,
2013-05-27 08:19:00,51.8,30.0,30.14,East,99,3.6,3.6,43,0.00,,---,0.00,VWS V13.01,2013-05-27 13:19:00,
2013-05-27 08:20:00,51.8,29.5,30.14,ESE,115,4.0,4.0,42,0.00,,---,0.00,VWS V13.01,2013-05-27 13:20:00,
2013-05-27 08:21:00,51.8,29.5,30.14,ESE,115,4.0,4.0,42,0.00,,---,0.00,VWS V13.01,2013-05-27 13:21:00,
2013-05-27 08:22:00,52.0,29.6,30.14,NNE,30,5.1,5.1,42,0.00,,---,0.00,VWS V13.01,2013-05-27 13:22:00,
2013-05-27 08:23:00,52.0,29.6,30.14,NE,48,4.5,5.1,42,0.00,,---,0.00,VWS V13.01,2013-05-27 13:23:00,
2013-05-27 08:24:00,52.0,29.6,30.14,ENE,73,3.6,4.5,42,0.00,,---,0.00,VWS V13.01,2013-05-27 13:24:00,
2013-05-27 08:25:00,52.2,29.8,30.14,NE,54,3.1,4.5,42,0.00,,---,0.00,VWS V13.01,2013-05-27 13:25:00,
2013-05-27 08:26:00,52.2,29.8,30.14,NE,54,3.1,4.5,42,0.00,,---,0.00,VWS V13.01,2013-05-27 13:26:00,
2013-05-27 08:27:00,52.2,29.8,30.14,ESE,104,4.0,4.0,42,0.00,,---,0.00,VWS V13.01,2013-05-27 13:27:00,
2013-05-27 08:28:00,52.3,29.9,30.14,ENE,69,3.1,4.0,42,0.00,,---,0.00,VWS V13.01,2013-05-27 13:28:00,
2013-05-27 08:29:00,52.3,29.4,30.14,NE,42,4.0,4.5,41,0.00,,---,0.00,VWS V13.01,2013-05-27 13:29:00,
2013-05-27 08:30:00,52.3,29.4,30.14,NE,53,2.7,4.0,41,0.00,,---,0.00,VWS V13.01,2013-05-27 13:30:00,
2013-05-27 08:31:00,52.3,29.4,30.14,NE,53,2.7,4.0,41,0.00,,---,0.00,VWS V13.01,2013-05-27 13:31:00,
2013-05-27 08:32:00,52.5,29.5,30.14,NE,54,2.7,4.0,41,0.00,,---,0.00,VWS V13.01,2013-05-27 13:32:00,
2013-05-27 08:33:00,52.5,29.5,30.14,East,81,0.0,2.7,41,0.00,,---,0.00,VWS V13.01,2013-05-27 13:33:00,
2013-05-27 08:34:00,52.5,29.5,30.14,East,89,0.0,0.0,41,0.00,,---,0.00,VWS V13.01,2013-05-27 13:34:00,
2013-05-27 08:35:00,52.5,29.5,30.14,ENE,77,4.0,5.1,41,0.00,,---,0.00,VWS V13.01,2013-05-27 13:35:00,
2013-05-27 08:36:00,52.5,29.5,30.14,ENE,77,4.0,5.1,41,0.00,,---,0.00,VWS V13.01,2013-05-27 13:36:00,
2013-05-27 08:37:00,52.7,29.7,30.14,ENE,77,2.7,3.6,41,0.00,,---,0.00,VWS V13.01,2013-05-27 13:37:00,
2013-05-27 08:38:00,52.7,29.7,30.14,NE,45,3.6,4.0,41,0.00,,---,0.00,VWS V13.01,2013-05-27 13:38:00,
2013-05-27 08:39:00,52.7,29.7,30.14,ENE,76,0.0,4.0,41,0.00,,---,0.00,VWS V13.01,2013-05-27 13:39:00,
2013-05-27 08:40:00,52.7,29.7,30.14,East,94,0.0,0.0,41,0.00,,---,0.00,VWS V13.01,2013-05-27 13:40:00,
2013-05-27 08:41:00,52.7,29.7,30.14,East,94,0.0,0.0,41,0.00,,---,0.00,VWS V13.01,2013-05-27 13:41:00,
2013-05-27 08:42:00,52.7,29.1,30.14,ENE,68,3.6,5.1,40,0.00,,---,0.00,VWS V13.01,2013-05-27 13:42:00,
2013-05-27 08:43:00,52.7,29.1,30.14,NE,50,0.0,3.6,40,0.00,,---,0.00,VWS V13.01,2013-05-27 13:43:00,
2013-05-27 08:44:00,52.7,29.1,30.14,East,89,0.0,0.0,40,0.00,,---,0.00,VWS V13.01,2013-05-27 13:44:00,
2013-05-27 08:45:00,52.7,29.1,30.14,ENE,68,0.0,0.0,40,0.00,,---,0.00,VWS V13.01,2013-05-27 13:45:00,
2013-05-27 08:46:00,52.7,29.1,30.14,ENE,68,0.0,0.0,40,0.00,,---,0.00,VWS V13.01,2013-05-27 13:46:00,
2013-05-27 08:47:00,52.9,29.8,30.14,NNE,30,0.0,0.0,41,0.00,,---,0.00,VWS V13.01,2013-05-27 13:47:00,
2013-05-27 08:48:00,52.9,29.8,30.14,NNE,30,0.0,0.0,41,0.00,,---,0.00,VWS V13.01,2013-05-27 13:48:00,
2013-05-27 08:49:00,52.9,29.8,30.14,ENE,73,3.1,3.6,41,0.00,,---,0.00,VWS V13.01,2013-05-27 13:49:00,
2013-05-27 08:50:00,52.9,29.2,30.14,NE,46,3.6,4.5,40,0.00,,---,0.00,VWS V13.01,2013-05-27 13:50:00,
2013-05-27 08:51:00,52.9,29.2,30.14,NE,46,3.6,4.5,40,0.00,,---,0.00,VWS V13.01,2013-05-27 13:51:00,
2013-05-27 08:52:00,52.9,29.2,30.14,ENE,71,0.0,0.0,40,0.00,,---,0.00,VWS V13.01,2013-05-27 13:52:00,
2013-05-27 08:53:00,53.1,29.4,30.14,NE,55,0.0,0.0,40,0.00,,---,0.00,VWS V13.01,2013-05-27 13:53:00,
2013-05-27 08:54:00,53.1,29.4,30.14,East,85,0.0,0.0,40,0.00,,---,0.00,VWS V13.01,2013-05-27 13:54:00,
2013-05-27 08:55:00,53.1,29.4,30.14,East,84,0.0,0.0,40,0.00,,---,0.00,VWS V13.01,2013-05-27 13:55:00,
2013-05-27 08:56:00,53.1,29.4,30.14,East,84,0.0,0.0,40,0.00,,---,0.00,VWS V13.01,2013-05-27 13:56:00,
2013-05-27 08:57:00,53.1,29.4,30.14,East,84,0.0,0.0,40,0.00,,---,0.00,VWS V13.01,2013-05-27 13:57:00,
2013-05-27 08:58:00,53.1,29.4,30.14,East,96,4.0,4.0,40,0.00,,---,0.00,VWS V13.01,2013-05-27 13:58:00,
2013-05-27 08:59:00,53.1,29.4,30.14,ENE,62,3.1,4.0,40,0.00,,---,0.00,VWS V13.01,2013-05-27 13:59:00,
2013-05-27 09:00:00,53.1,29.4,30.14,NE,50,3.6,4.0,40,0.00,,---,0.00,VWS V13.01,2013-05-27 14:00:00,
2013-05-27 09:01:00,53.1,29.4,30.14,NE,50,3.6,4.0,40,0.00,,---,0.00,VWS V13.01,2013-05-27 14:01:00,
2013-05-27 09:02:00,53.1,29.4,30.14,East,79,0.0,3.1,40,0.00,,---,0.00,VWS V13.01,2013-05-27 14:02:00,
2013-05-27 09:03:00,53.1,29.4,30.14,ENE,61,0.0,0.0,40,0.00,,---,0.00,VWS V13.01,2013-05-27 14:03:00,
2013-05-27 09:04:00,52.9,29.2,30.14,ENE,62,3.6,4.5,40,0.00,,---,0.00,VWS V13.01,2013-05-27 14:04:00,
2013-05-27 09:05:00,52.9,29.2,30.14,NE,47,4.0,4.5,40,0.00,,---,0.00,VWS V13.01,2013-05-27 14:05:00,
2013-05-27 09:06:00,52.9,29.2,30.14,NE,51,4.5,4.5,40,0.00,,---,0.00,VWS V13.01,2013-05-27 14:06:00,
2013-05-27 09:07:00,52.9,29.2,30.14,NE,47,4.0,4.5,40,0.00,,---,0.00,VWS V13.01,2013-05-27 14:07:00,
2013-05-27 09:08:00,52.9,29.2,30.14,NE,43,4.0,4.5,40,0.00,,---,0.00,VWS V13.01,2013-05-27 14:08:00,
2013-05-27 09:09:00,52.9,29.2,30.14,NE,35,4.5,4.7,40,0.00,,---,0.00,VWS V13.01,2013-05-27 14:09:00,
2013-05-27 09:10:00,52.9,28.6,30.11,NE,55,3.6,4.5,39,0.00,,---,0.00,VWS V13.01,2013-05-27 14:10:00,
2013-05-27 09:11:00,52.9,28.6,30.11,ENE,60,3.6,4.0,39,0.00,,---,0.00,VWS V13.01,2013-05-27 14:11:00,
2013-05-27 09:12:00,52.9,28.6,30.11,NE,55,3.6,3.6,39,0.00,,---,0.00,VWS V13.01,2013-05-27 14:12:00,
2013-05-27 09:13:00,52.9,29.2,30.11,East,89,3.1,4.0,40,0.00,,---,0.00,VWS V13.01,2013-05-27 14:13:00,
2013-05-27 09:14:00,53.1,29.4,30.11,East,90,3.1,4.0,40,0.00,,---,0.00,VWS V13.01,2013-05-27 14:14:00,
2013-05-27 09:15:00,53.1,28.8,30.11,NE,53,4.0,4.5,39,0.00,,---,0.00,VWS V13.01,2013-05-27 14:15:00,
2013-05-27 09:16:00,53.1,28.8,30.11,NE,50,3.1,4.0,39,0.00,,---,0.00,VWS V13.01,2013-05-27 14:16:00,
2013-05-27 09:17:00,53.1,28.8,30.11,NE,48,3.6,4.0,39,0.00,,---,0.00,VWS V13.01,2013-05-27 14:17:00,
2013-05-27 09:18:00,53.1,28.8,30.11,ENE,61,0.0,3.6,39,0.00,,---,0.00,VWS V13.01,2013-05-27 14:18:00,
2013-05-27 09:19:00,53.1,28.8,30.11,ENE,57,0.0,0.0,39,0.00,,---,0.00,VWS V13.01,2013-05-27 14:19:00,
2013-05-27 09:20:00,53.1,28.8,30.11,ENE,65,3.6,4.5,39,0.00,,---,0.00,VWS V13.01,2013-05-27 14:20:00,
2013-05-27 09:21:00,53.1,28.8,30.11,NE,55,3.1,4.0,39,0.00,,---,0.00,VWS V13.01,2013-05-27 14:21:00,
2013-05-27 09:22:00,53.1,28.8,30.11,NE,35,4.0,4.0,39,0.00,,---,0.00,VWS V13.01,2013-05-27 14:22:00,
2013-05-27 09:23:00,53.1,28.8,30.11,ESE,102,3.6,3.6,39,0.00,,---,0.00,VWS V13.01,2013-05-27 14:23:00,
2013-05-27 09:24:00,53.1,28.8,30.11,ESE,102,0.0,3.6,39,0.00,,---,0.00,VWS V13.01,2013-05-27 14:24:00,
2013-05-27 09:25:00,53.1,28.8,30.11,North,6,0.0,0.0,39,0.00,,---,0.00,VWS V13.01,2013-05-27 14:25:00,
2013-05-27 09:26:00,53.1,28.8,30.11,East,86,0.0,0.0,39,0.00,,---,0.00,VWS V13.01,2013-05-27 14:26:00,
2013-05-27 09:27:00,53.1,28.8,30.11,NE,52,0.0,0.0,39,0.00,,---,0.00,VWS V13.01,2013-05-27 14:27:00,
2013-05-27 09:28:00,53.1,28.8,30.11,East,81,3.6,3.6,39,0.00,,---,0.00,VWS V13.01,2013-05-27 14:28:00,
2013-05-27 09:29:00,53.1,28.8,30.11,ENE,59,3.1,4.5,39,0.00,,---,0.00,VWS V13.01,2013-05-27 14:29:00,
2013-05-27 09:30:00,53.1,28.8,30.11,ENE,58,3.1,4.0,39,0.00,,---,0.00,VWS V13.01,2013-05-27 14:30:00,
2013-05-27 09:31:00,53.1,28.8,30.11,ENE,58,0.0,3.1,39,0.00,,---,0.00,VWS V13.01,2013-05-27 14:31:00,
2013-05-27 09:32:00,53.1,28.8,30.11,ENE,58,0.0,3.1,39,0.00,,---,0.00,VWS V13.01,2013-05-27 14:32:00,
2013-05-27 09:33:00,53.1,28.8,30.11,East,87,3.1,3.6,39,0.00,,---,0.00,VWS V13.01,2013-05-27 14:33:00,
2013-05-27 09:34:00,53.1,28.8,30.11,NE,45,2.7,3.6,39,0.00,,---,0.00,VWS V13.01,2013-05-27 14:34:00,
2013-05-27 09:35:00,53.1,28.8,30.11,East,81,3.1,3.1,39,0.00,,---,0.00,VWS V13.01,2013-05-27 14:35:00,
2013-05-27 09:36:00,53.1,28.8,30.11,East,83,4.0,4.0,39,0.00,,---,0.00,VWS V13.01,2013-05-27 14:36:00,
2013-05-27 09:37:00,53.1,28.8,30.11,ENE,61,2.7,3.1,39,0.00,,---,0.00,VWS V13.01,2013-05-27 14:37:00,
2013-05-27 09:38:00,53.2,28.9,30.11,ENE,77,0.0,3.1,39,0.00,,---,0.00,VWS V13.01,2013-05-27 14:38:00,
2013-05-27 09:39:00,53.2,28.9,30.11,East,79,3.6,3.6,39,0.00,,---,0.00,VWS V13.01,2013-05-27 14:39:00,
2013-05-27 09:40:00,53.2,28.9,30.11,NE,52,4.5,4.5,39,0.00,,---,0.00,VWS V13.01,2013-05-27 14:40:00,
2013-05-27 09:41:00,53.2,28.9,30.11,East,82,0.0,4.5,39,0.00,,---,0.00,VWS V13.01,2013-05-27 14:41:00,
2013-05-27 09:42:00,53.2,28.9,30.11,East,82,2.7,4.5,39,0.00,,---,0.00,VWS V13.01,2013-05-27 14:42:00,
2013-05-27 09:43:00,53.4,29.1,30.11,East,82,4.5,4.5,39,0.00,,---,0.00,VWS V13.01,2013-05-27 14:43:00,
2013-05-27 09:44:00,53.4,29.1,30.11,ENE,57,3.6,4.7,39,0.00,,---,0.00,VWS V13.01,2013-05-27 14:44:00,
2013-05-27 09:45:00,53.4,29.1,30.11,ENE,70,2.7,4.0,39,0.00,,---,0.00,VWS V13.01,2013-05-27 14:45:00,
2013-05-27 09:46:00,53.4,29.1,30.11,East,79,0.0,2.7,39,0.00,,---,0.00,VWS V13.01,2013-05-27 14:46:00,
2013-05-27 09:47:00,53.4,29.1,30.11,East,79,0.0,2.7,39,0.00,,---,0.00,VWS V13.01,2013-05-27 14:47:00,
2013-05-27 09:48:00,53.4,29.1,30.11,ENE,64,0.0,0.0,39,0.00,,---,0.00,VWS V13.01,2013-05-27 14:48:00,
2013-05-27 09:49:00,53.6,28.6,30.11,East,101,0.0,0.0,38,0.00,,---,0.00,VWS V13.01,2013-05-27 14:49:00,
2013-05-27 09:50:00,53.6,28.6,30.11,ENE,71,3.1,3.1,38,0.00,,---,0.00,VWS V13.01,2013-05-27 14:50:00,
2013-05-27 09:51:00,53.6,28.6,30.11,ENE,71,3.6,3.6,38,0.00,,---,0.00,VWS V13.01,2013-05-27 14:51:00,
2013-05-27 09:52:00,53.6,28.6,30.11,ENE,71,3.6,3.6,38,0.00,,---,0.00,VWS V13.01,2013-05-27 14:52:00,
2013-05-27 09:53:00,53.6,28.6,30.11,ENE,64,0.0,0.0,38,0.00,,---,0.00,VWS V13.01,2013-05-27 14:53:00,
2013-05-27 09:54:00,53.6,28.6,30.11,ENE,60,0.0,0.0,38,0.00,,---,0.00,VWS V13.01,2013-05-27 14:54:00,
2013-05-27 09:55:00,53.6,28.6,30.11,ENE,67,5.6,5.6,38,0.00,,---,0.00,VWS V13.01,2013-05-27 14:55:00,
2013-05-27 09:56:00,53.8,28.8,30.11,East,84,3.1,5.6,38,0.00,,---,0.00,VWS V13.01,2013-05-27 14:56:00,
2013-05-27 09:57:00,53.8,28.8,30.11,ENE,76,4.0,5.6,38,0.00,,---,0.00,VWS V13.01,2013-05-27 14:57:00,
2013-05-27 09:58:00,53.8,28.8,30.11,East,94,3.6,5.6,38,0.00,,---,0.00,VWS V13.01,2013-05-27 14:58:00,
2013-05-27 09:59:00,53.8,28.8,30.11,NE,38,4.7,4.7,38,0.00,,---,0.00,VWS V13.01,2013-05-27 14:59:00,
2013-05-27 10:00:00,53.8,28.8,30.11,NNE,26,4.5,4.7,38,0.00,,---,0.00,VWS V13.01,2013-05-27 15:00:00,
2013-05-27 10:01:00,53.8,28.8,30.11,NE,47,4.5,5.1,38,0.00,,---,0.00,VWS V13.01,2013-05-27 15:01:00,
2013-05-27 10:02:00,53.8,28.8,30.11,NE,48,5.6,5.6,38,0.00,,---,0.00,VWS V13.01,2013-05-27 15:02:00,
2013-05-27 10:03:00,53.8,28.8,30.11,NE,47,4.5,5.1,38,0.00,,---,0.00,VWS V13.01,2013-05-27 15:03:00,
2013-05-27 10:04:00,53.8,28.8,30.11,ENE,67,3.6,4.5,38,0.00,,---,0.00,VWS V13.01,2013-05-27 15:04:00,
2013-05-27 10:05:00,53.8,28.8,30.11,ENE,58,4.5,4.7,38,0.00,,---,0.00,VWS V13.01,2013-05-27 15:05:00,
2013-05-27 10:06:00,53.8,28.8,30.11,NE,51,5.6,6.5,38,0.00,,---,0.00,VWS V13.01,2013-05-27 15:06:00,
2013-05-27 10:07:00,53.8,28.8,30.11,ENE,77,4.0,5.6,38,0.00,,---,0.00,VWS V13.01,2013-05-27 15:07:00,
2013-05-27 10:08:00,53.8,28.8,30.11,East,93,4.0,5.6,38,0.00,,---,0.00,VWS V13.01,2013-05-27 15:08:00,
2013-05-27 10:09:00,53.8,28.8,30.11,ENE,76,3.1,6.5,38,0.00,,---,0.00,VWS V13.01,2013-05-27 15:09:00,
2013-05-27 10:10:00,54.0,29.0,30.11,NE,44,4.0,4.0,38,0.00,,---,0.00,VWS V13.01,2013-05-27 15:10:00,
2013-05-27 10:11:00,54.0,29.0,30.08,NE,36,4.0,4.7,38,0.00,,---,0.00,VWS V13.01,2013-05-27 15:11:00,
2013-05-27 10:12:00,54.0,29.0,30.08,NE,46,4.5,4.7,38,0.00,,---,0.00,VWS V13.01,2013-05-27 15:12:00,
2013-05-27 10:13:00,54.0,28.3,30.08,NE,36,4.0,4.0,37,0.00,,---,0.00,VWS V13.01,2013-05-27 15:13:00,
2013-05-27 10:14:00,54.0,29.0,30.08,NE,48,4.7,5.6,38,0.00,,---,0.00,VWS V13.01,2013-05-27 15:14:00,
2013-05-27 10:15:00,54.1,28.5,30.08,NNE,25,5.6,5.6,37,0.00,,---,0.00,VWS V13.01,2013-05-27 15:15:00,
2013-05-27 10:16:00,54.1,28.5,30.08,NE,54,4.0,5.6,37,0.00,,---,0.00,VWS V13.01,2013-05-27 15:16:00,
2013-05-27 10:17:00,54.1,28.5,30.08,East,98,3.6,4.0,37,0.00,,---,0.00,VWS V13.01,2013-05-27 15:17:00,
2013-05-27 10:18:00,54.1,28.5,30.08,SE,126,4.0,4.0,37,0.00,,---,0.00,VWS V13.01,2013-05-27 15:18:00,
2013-05-27 10:19:00,54.1,28.5,30.08,NNE,14,5.6,5.6,37,0.00,,---,0.00,VWS V13.01,2013-05-27 15:19:00,
2013-05-27 10:20:00,54.3,28.6,30.08,NE,38,4.5,5.6,37,0.00,,---,0.00,VWS V13.01,2013-05-27 15:20:00,
2013-05-27 10:21:00,54.3,28.6,30.08,NE,49,5.1,5.1,37,0.00,,---,0.00,VWS V13.01,2013-05-27 15:21:00,
2013-05-27 10:22:00,54.3,28.6,30.08,ENE,69,4.5,5.1,37,0.00,,---,0.00,VWS V13.01,2013-05-27 15:22:00,
2013-05-27 10:23:00,54.3,28.6,30.08,NE,47,4.7,5.1,37,0.00,,---,0.00,VWS V13.01,2013-05-27 15:23:00,
2013-05-27 10:24:00,54.3,28.6,30.08,NE,46,5.1,5.1,37,0.00,,---,0.00,VWS V13.01,2013-05-27 15:24:00,
2013-05-27 10:25:00,54.3,28.6,30.08,NNE,33,3.6,5.1,37,0.00,,---,0.00,VWS V13.01,2013-05-27 15:25:00,
2013-05-27 10:26:00,54.3,28.6,30.11,ESE,108,2.7,4.5,37,0.00,,---,0.00,VWS V13.01,2013-05-27 15:26:00,
2013-05-27 10:27:00,54.3,28.6,30.11,ENE,58,3.1,4.5,37,0.00,,---,0.00,VWS V13.01,2013-05-27 15:27:00,
2013-05-27 10:28:00,54.3,28.6,30.11,NE,55,4.0,4.0,37,0.00,,---,0.00,VWS V13.01,2013-05-27 15:28:00,
2013-05-27 10:29:00,54.3,28.6,30.11,ENE,76,4.0,4.0,37,0.00,,---,0.00,VWS V13.01,2013-05-27 15:29:00,
2013-05-27 10:30:00,54.3,28.6,30.11,ENE,66,4.0,4.0,37,0.00,,---,0.00,VWS V13.01,2013-05-27 15:30:00,
2013-05-27 10:31:00,54.3,28.6,30.11,East,93,3.6,6.5,37,0.00,,---,0.00,VWS V13.01,2013-05-27 15:31:00,
2013-05-27 10:32:00,54.3,28.6,30.11,ENE,63,4.0,4.5,37,0.00,,---,0.00,VWS V13.01,2013-05-27 15:32:00,
2013-05-27 10:33:00,54.3,28.6,30.11,NNE,17,4.0,4.5,37,0.00,,---,0.00,VWS V13.01,2013-05-27 15:33:00,
2013-05-27 10:34:00,54.3,28.6,30.11,NE,53,4.0,4.0,37,0.00,,---,0.00,VWS V13.01,2013-05-27 15:34:00,
2013-05-27 10:35:00,54.3,28.6,30.11,East,93,3.6,4.0,37,0.00,,---,0.00,VWS V13.01,2013-05-27 15:35:00,
2013-05-27 10:36:00,54.3,28.6,30.11,ESE,119,2.7,4.0,37,0.00,,---,0.00,VWS V13.01,2013-05-27 15:36:00,
2013-05-27 10:37:00,54.3,28.6,30.11,ENE,77,3.1,4.5,37,0.00,,---,0.00,VWS V13.01,2013-05-27 15:37:00,
2013-05-27 10:38:00,54.3,28.6,30.11,East,101,3.6,3.6,37,0.00,,---,0.00,VWS V13.01,2013-05-27 15:38:00,
2013-05-27 10:39:00,54.3,28.6,30.11,ENE,77,3.1,4.5,37,0.00,,---,0.00,VWS V13.01,2013-05-27 15:39:00,
2013-05-27 10:40:00,54.3,28.6,30.11,ENE,78,3.1,5.1,37,0.00,,---,0.00,VWS V13.01,2013-05-27 15:40:00,
2013-05-27 10:41:00,54.3,28.6,30.11,NE,42,3.6,4.0,37,0.00,,---,0.00,VWS V13.01,2013-05-27 15:41:00,
2013-05-27 10:42:00,54.3,28.6,30.11,NE,36,6.5,6.5,37,0.00,,---,0.00,VWS V13.01,2013-05-27 15:42:00,
2013-05-27 10:43:00,54.3,28.6,30.11,NE,48,4.0,6.5,37,0.00,,---,0.00,VWS V13.01,2013-05-27 15:43:00,
2013-05-27 10:44:00,54.3,28.6,30.11,NE,36,6.5,6.5,37,0.00,,---,0.00,VWS V13.01,2013-05-27 15:44:00,
2013-05-27 10:45:00,54.3,28.6,30.11,ENE,71,2.7,4.0,37,0.00,,---,0.00,VWS V13.01,2013-05-27 15:45:00,
2013-05-27 10:46:00,54.3,28.6,30.11,East,85,2.7,3.6,37,0.00,,---,0.00,VWS V13.01,2013-05-27 15:46:00,
2013-05-27 10:47:00,54.5,28.8,30.11,NNE,24,4.7,4.7,37,0.00,,---,0.00,VWS V13.01,2013-05-27 15:47:00,
2013-05-27 10:48:00,54.5,28.8,30.11,NE,41,5.1,5.6,37,0.00,,---,0.00,VWS V13.01,2013-05-27 15:48:00,
2013-05-27 10:49:00,54.5,28.8,30.11,NE,51,5.6,5.6,37,0.00,,---,0.00,VWS V13.01,2013-05-27 15:49:00,
2013-05-27 10:50:00,54.5,28.8,30.11,NE,49,5.1,5.1,37,0.00,,---,0.00,VWS V13.01,2013-05-27 15:50:00,
2013-05-27 10:51:00,54.5,28.8,30.11,East,94,4.7,5.1,37,0.00,,---,0.00,VWS V13.01,2013-05-27 15:51:00,
2013-05-27 10:52:00,54.5,28.8,30.11,NNE,33,5.1,5.1,37,0.00,,---,0.00,VWS V13.01,2013-05-27 15:52:00,
2013-05-27 10:53:00,54.5,28.8,30.11,East,81,4.7,5.6,37,0.00,,---,0.00,VWS V13.01,2013-05-27 15:53:00,
2013-05-27 10:54:00,54.5,28.8,30.11,NE,47,5.6,5.6,37,0.00,,---,0.00,VWS V13.01,2013-05-27 15:54:00,
2013-05-27 10:55:00,54.7,28.3,30.11,ENE,57,4.7,4.7,36,0.00,,---,0.00,VWS V13.01,2013-05-27 15:55:00,
2013-05-27 10:56:00,54.7,28.3,30.08,NE,38,4.7,5.1,36,0.00,,---,0.00,VWS V13.01,2013-05-27 15:56:00,
2013-05-27 10:57:00,54.7,28.3,30.08,NE,44,4.7,5.6,36,0.00,,---,0.00,VWS V13.01,2013-05-27 15:57:00,
2013-05-27 10:58:00,54.9,28.4,30.08,ESE,110,2.7,4.7,36,0.00,,---,0.00,VWS V13.01,2013-05-27 15:58:00,
2013-05-27 10:59:00,54.7,28.3,30.08,ENE,74,4.5,4.7,36,0.00,,---,0.00,VWS V13.01,2013-05-27 15:59:00,
2013-05-27 11:00:00,54.9,28.4,30.08,NE,52,4.7,4.7,36,0.00,,---,0.00,VWS V13.01,2013-05-27 16:00:00,
2013-05-27 11:01:00,54.9,28.4,30.08,NE,44,4.5,4.7,36,0.00,,---,0.00,VWS V13.01,2013-05-27 16:01:00,
2013-05-27 11:02:00,54.9,28.4,30.08,East,82,4.0,4.5,36,0.00,,---,0.00,VWS V13.01,2013-05-27 16:02:00,
2013-05-27 11:03:00,55.0,28.6,30.08,NE,44,4.0,5.1,36,0.00,,---,0.00,VWS V13.01,2013-05-27 16:03:00,
2013-05-27 11:04:00,55.0,28.6,30.08,East,91,3.1,4.0,36,0.00,,---,0.00,VWS V13.01,2013-05-27 16:04:00,
2013-05-27 11:05:00,55.0,28.6,30.08,ENE,76,5.1,5.1,36,0.00,,---,0.00,VWS V13.01,2013-05-27 16:05:00,
2013-05-27 11:06:00,55.0,28.6,30.08,ENE,69,4.0,5.1,36,0.00,,---,0.00,VWS V13.01,2013-05-27 16:06:00,
2013-05-27 11:07:00,55.2,28.8,30.08,NE,52,5.6,5.6,36,0.00,,---,0.00,VWS V13.01,2013-05-27 16:07:00,
2013-05-27 11:08:00,55.2,28.8,30.08,ENE,74,5.6,5.6,36,0.00,,---,0.00,VWS V13.01,2013-05-27 16:08:00,
2013-05-27 11:09:00,55.2,28.8,30.08,NNE,23,4.0,5.6,36,0.00,,---,0.00,VWS V13.01,2013-05-27 16:09:00,
2013-05-27 11:10:00,55.4,28.9,30.08,NE,42,5.1,5.1,36,0.00,,---,0.00,VWS V13.01,2013-05-27 16:10:00,
2013-05-27 11:11:00,55.4,28.9,30.08,NE,55,3.1,5.1,36,0.00,,---,0.00,VWS V13.01,2013-05-27 16:11:00,
2013-05-27 11:12:00,55.4,28.9,30.08,ENE,60,4.5,4.7,36,0.00,,---,0.00,VWS V13.01,2013-05-27 16:12:00,
2013-05-27 11:13:00,55.6,29.1,30.08,NNE,28,4.0,4.7,36,0.00,,---,0.00,VWS V13.01,2013-05-27 16:13:00,
2013-05-27 11:14:00,55.6,29.1,30.08,ENE,71,4.7,4.7,36,0.00,,---,0.00,VWS V13.01,2013-05-27 16:14:00,
2013-05-27 11:15:00,55.8,29.2,30.08,NNE,26,5.6,6.5,36,0.00,,---,0.00,VWS V13.01,2013-05-27 16:15:00,
2013-05-27 11:16:00,55.8,28.5,30.08,NE,43,4.7,5.6,35,0.00,,---,0.00,VWS V13.01,2013-05-27 16:16:00,
2013-05-27 11:17:00,55.9,28.7,30.08,NE,51,3.6,4.7,35,0.00,,---,0.00,VWS V13.01,2013-05-27 16:17:00,
2013-05-27 11:18:00,55.9,28.7,30.08,ENE,61,4.5,4.5,35,0.00,,---,0.00,VWS V13.01,2013-05-27 16:18:00,
2013-05-27 11:19:00,55.9,28.7,30.08,NE,45,3.1,3.6,35,0.00,,---,0.00,VWS V13.01,2013-05-27 16:19:00,
2013-05-27 11:20:00,55.9,28.7,30.08,ENE,73,4.0,5.1,35,0.00,,---,0.00,VWS V13.01,2013-05-27 16:20:00,
2013-05-27 11:21:00,56.1,28.9,30.08,East,85,6.0,6.0,35,0.00,,---,0.00,VWS V13.01,2013-05-27 16:21:00,
2013-05-27 11:22:00,56.1,28.9,30.08,ENE,69,4.0,6.0,35,0.00,,---,0.00,VWS V13.01,2013-05-27 16:22:00,
2013-05-27 11:23:00,56.1,28.9,30.08,ENE,78,4.5,6.0,35,0.00,,---,0.00,VWS V13.01,2013-05-27 16:23:00,
2013-05-27 11:24:00,56.1,28.9,30.08,NNE,12,6.0,6.0,35,0.00,,---,0.00,VWS V13.01,2013-05-27 16:24:00,
2013-05-27 11:25:00,56.3,29.0,30.08,ESE,112,4.0,6.9,35,0.00,,---,0.00,VWS V13.01,2013-05-27 16:25:00,
2013-05-27 11:26:00,56.5,29.2,30.08,NE,56,4.0,5.6,35,0.00,,---,0.00,VWS V13.01,2013-05-27 16:26:00,
2013-05-27 11:27:00,56.5,29.2,30.08,East,82,3.1,4.5,35,0.00,,---,0.00,VWS V13.01,2013-05-27 16:27:00,
2013-05-27 11:28:00,56.7,29.3,30.08,NE,47,7.4,7.4,35,0.00,,---,0.00,VWS V13.01,2013-05-27 16:28:00,
2013-05-27 11:29:00,56.7,29.3,30.08,NNE,21,6.5,6.5,35,0.00,,---,0.00,VWS V13.01,2013-05-27 16:29:00,
2013-05-27 11:30:00,56.8,29.5,30.08,North,8,4.5,5.6,35,0.00,,---,0.00,VWS V13.01,2013-05-27 16:30:00,
2013-05-27 11:31:00,56.8,29.5,30.08,SSE,168,4.0,4.7,35,0.00,,---,0.00,VWS V13.01,2013-05-27 16:31:00,
2013-05-27 11:32:00,57.0,29.7,30.08,ENE,78,4.7,4.7,35,0.00,,---,0.00,VWS V13.01,2013-05-27 16:32:00,
2013-05-27 11:33:00,57.0,29.7,30.08,NNE,27,4.5,6.0,35,0.00,,---,0.00,VWS V13.01,2013-05-27 16:33:00,
2013-05-27 11:34:00,57.2,29.8,30.08,NE,43,5.1,5.1,35,0.00,,---,0.00,VWS V13.01,2013-05-27 16:34:00,
2013-05-27 11:35:00,57.0,29.7,30.08,ENE,75,6.0,6.0,35,0.00,,---,0.00,VWS V13.01,2013-05-27 16:35:00,
2013-05-27 11:36:00,57.4,30.0,30.08,NE,46,5.1,5.1,35,0.00,,---,0.00,VWS V13.01,2013-05-27 16:36:00,
2013-05-27 11:37:00,57.6,29.4,30.08,East,96,4.5,5.1,34,0.00,,---,0.00,VWS V13.01,2013-05-27 16:37:00,
2013-05-27 11:38:00,57.7,30.3,30.08,East,101,4.5,5.6,35,0.00,,---,0.00,VWS V13.01,2013-05-27 16:38:00,
2013-05-27 11:39:00,57.7,29.6,30.08,NE,54,6.0,6.0,34,0.00,,---,0.00,VWS V13.01,2013-05-27 16:39:00,
2013-05-27 11:40:00,57.7,30.3,30.08,East,101,4.5,5.6,35,0.00,,---,0.00,VWS V13.01,2013-05-27 16:40:00,
2013-05-27 11:41:00,57.9,29.7,30.08,NNE,24,4.0,5.1,34,0.00,,---,0.00,VWS V13.01,2013-05-27 16:41:00,
2013-05-27 11:42:00,58.1,30.6,30.08,East,95,3.6,5.1,35,0.00,,---,0.00,VWS V13.01,2013-05-27 16:42:00,
2013-05-27 11:43:00,58.1,30.6,30.08,NNE,23,5.1,5.1,35,0.00,,---,0.00,VWS V13.01,2013-05-27 16:43:00,
2013-05-27 11:44:00,58.3,30.1,30.08,ENE,62,4.7,5.6,34,0.00,,---,0.00,VWS V13.01,2013-05-27 16:44:00,
2013-05-27 11:45:00,58.1,30.6,30.08,NNE,23,5.1,5.1,35,0.00,,---,0.00,VWS V13.01,2013-05-27 16:45:00,
2013-05-27 11:46:00,58.5,30.2,30.08,ENE,58,5.6,5.6,34,0.00,,---,0.00,VWS V13.01,2013-05-27 16:46:00,
2013-05-27 11:47:00,58.5,30.2,30.08,East,98,4.5,5.6,34,0.00,,---,0.00,VWS V13.01,2013-05-27 16:47:00,
2013-05-27 11:48:00,58.5,30.2,30.08,East,82,4.7,5.1,34,0.00,,---,0.00,VWS V13.01,2013-05-27 16:48:00,
2013-05-27 11:49:00,58.5,30.2,30.08,NE,51,5.6,6.5,34,0.00,,---,0.00,VWS V13.01,2013-05-27 16:49:00,
2013-05-27 11:50:00,58.5,30.2,30.08,East,79,4.5,4.7,34,0.00,,---,0.00,VWS V13.01,2013-05-27 16:50:00,
2013-05-27 11:51:00,58.6,29.6,30.08,ENE,61,5.1,5.1,33,0.00,,---,0.00,VWS V13.01,2013-05-27 16:51:00,
2013-05-27 11:52:00,58.8,29.8,30.08,East,88,3.1,6.9,33,0.00,,---,0.00,VWS V13.01,2013-05-27 16:52:00,
2013-05-27 11:53:00,58.8,29.8,30.08,East,80,3.6,4.0,33,0.00,,---,0.00,VWS V13.01,2013-05-27 16:53:00,
2013-05-27 11:54:00,58.8,29.8,30.08,ENE,74,3.6,4.7,33,0.00,,---,0.00,VWS V13.01,2013-05-27 16:54:00,
2013-05-27 11:55:00,58.8,29.8,30.08,ENE,74,4.5,4.5,33,0.00,,---,0.00,VWS V13.01,2013-05-27 16:55:00,
2013-05-27 11:56:00,59.0,29.2,30.08,ENE,58,5.6,6.0,32,0.00,,---,0.00,VWS V13.01,2013-05-27 16:56:00,
2013-05-27 11:57:00,59.0,29.2,30.08,NE,56,6.0,6.0,32,0.00,,---,0.00,VWS V13.01,2013-05-27 16:57:00,
2013-05-27 11:58:00,59.0,29.2,30.08,ESE,105,4.5,6.0,32,0.00,,---,0.00,VWS V13.01,2013-05-27 16:58:00,
2013-05-27 11:59:00,59.2,29.4,30.08,East,88,3.6,4.7,32,0.00,,---,0.00,VWS V13.01,2013-05-27 16:59:00,
2013-05-27 12:00:00,59.0,29.2,30.08,NE,50,4.7,4.7,32,0.00,,---,0.00,VWS V13.01,2013-05-27 17:00:00,
2013-05-27 12:01:00,59.2,29.4,30.08,NE,52,5.1,5.1,32,0.00,,---,0.00,VWS V13.01,2013-05-27 17:01:00,
2013-05-27 12:02:00,59.2,29.4,30.08,ENE,67,6.0,6.0,32,0.00,,---,0.00,VWS V13.01,2013-05-27 17:02:00,
2013-05-27 12:03:00,59.4,28.7,30.08,ENE,69,4.5,6.0,31,0.00,,---,0.00,VWS V13.01,2013-05-27 17:03:00,
2013-05-27 12:04:00,59.4,28.7,30.08,NE,37,4.5,6.0,31,0.00,,---,0.00,VWS V13.01,2013-05-27 17:04:00,
2013-05-27 12:05:00,59.4,28.7,30.08,East,81,4.5,6.0,31,0.00,,---,0.00,VWS V13.01,2013-05-27 17:05:00,
2013-05-27 12:06:00,59.4,28.7,30.08,ENE,67,4.0,4.7,31,0.00,,---,0.00,VWS V13.01,2013-05-27 17:06:00,
2013-05-27 12:07:00,59.4,29.5,30.08,East,88,4.5,5.1,32,0.00,,---,0.00,VWS V13.01,2013-05-27 17:07:00,
2013-05-27 12:08:00,59.4,28.7,30.08,East,89,6.5,6.5,31,0.00,,---,0.00,VWS V13.01,2013-05-27 17:08:00,
2013-05-27 12:09:00,59.4,28.7,30.08,ENE,72,4.7,6.5,31,0.00,,---,0.00,VWS V13.01,2013-05-27 17:09:00,
2013-05-27 12:10:00,59.4,28.7,30.08,ENE,69,5.1,6.5,31,0.00,,---,0.00,VWS V13.01,2013-05-27 17:10:00,
2013-05-27 12:11:00,59.5,28.9,30.08,East,86,3.6,4.7,31,0.00,,---,0.00,VWS V13.01,2013-05-27 17:11:00,
2013-05-27 12:12:00,59.5,28.9,30.08,ENE,60,5.1,5.1,31,0.00,,---,0.00,VWS V13.01,2013-05-27 17:12:00,
2013-05-27 12:13:00,59.5,28.9,30.08,NE,46,5.1,5.1,31,0.00,,---,0.00,VWS V13.01,2013-05-27 17:13:00,
2013-05-27 12:14:00,59.7,29.1,30.08,East,88,6.0,6.0,31,0.00,,---,0.00,VWS V13.01,2013-05-27 17:14:00,
2013-05-27 12:15:00,59.7,29.1,30.08,ENE,67,4.7,6.5,31,0.00,,---,0.00,VWS V13.01,2013-05-27 17:15:00,
2013-05-27 12:16:00,59.7,29.1,30.08,East,88,6.0,6.0,31,0.00,,---,0.00,VWS V13.01,2013-05-27 17:16:00,
2013-05-27 12:17:00,59.7,29.1,30.08,NE,37,5.6,5.6,31,0.00,,---,0.00,VWS V13.01,2013-05-27 17:17:00,
2013-05-27 12:18:00,59.7,29.1,30.08,ESE,108,4.7,6.0,31,0.00,,---,0.00,VWS V13.01,2013-05-27 17:18:00,
2013-05-27 12:19:00,59.9,29.2,30.08,East,93,3.6,4.7,31,0.00,,---,0.00,VWS V13.01,2013-05-27 17:19:00,
2013-05-27 12:20:00,60.1,29.4,30.08,East,97,3.1,4.0,31,0.00,,---,0.00,VWS V13.01,2013-05-27 17:20:00,
2013-05-27 12:21:00,59.9,29.2,30.08,East,93,3.6,4.7,31,0.00,,---,0.00,VWS V13.01,2013-05-27 17:21:00,
2013-05-27 12:22:00,60.3,29.5,30.08,NNE,19,4.7,5.1,31,0.00,,---,0.00,VWS V13.01,2013-05-27 17:22:00,
2013-05-27 12:23:00,60.3,29.5,30.08,NE,38,3.1,5.1,31,0.00,,---,0.00,VWS V13.01,2013-05-27 17:23:00,
2013-05-27 12:24:00,60.4,28.9,30.08,NE,45,7.8,7.8,30,0.00,,---,0.00,VWS V13.01,2013-05-27 17:24:00,
2013-05-27 12:25:00,60.4,28.9,30.05,ENE,70,3.6,7.8,30,0.00,,---,0.00,VWS V13.01,2013-05-27 17:25:00,
2013-05-27 12:26:00,60.4,28.9,30.08,NE,45,6.9,6.9,30,0.00,,---,0.00,VWS V13.01,2013-05-27 17:26:00,
2013-05-27 12:27:00,60.6,29.0,30.05,NNE,19,5.1,7.4,30,0.00,,---,0.00,VWS V13.01,2013-05-27 17:27:00,
2013-05-27 12:28:00,60.6,29.0,30.05,ENE,71,5.1,6.9,30,0.00,,---,0.00,VWS V13.01,2013-05-27 17:28:00,
2013-05-27 12:29:00,60.4,28.9,30.05,ENE,70,4.0,5.1,30,0.00,,---,0.00,VWS V13.01,2013-05-27 17:29:00,
2013-05-27 12:30:00,60.4,28.9,30.05,NE,53,4.7,4.7,30,0.00,,---,0.00,VWS V13.01,2013-05-27 17:30:00,
2013-05-27 12:31:00,60.4,28.9,30.05,ENE,70,4.0,5.1,30,0.00,,---,0.00,VWS V13.01,2013-05-27 17:31:00,
2013-05-27 12:32:00,60.6,29.0,30.05,ENE,76,4.0,6.0,30,0.00,,---,0.00,VWS V13.01,2013-05-27 17:32:00,
2013-05-27 12:33:00,60.6,29.0,30.05,East,86,4.5,4.5,30,0.00,,---,0.00,VWS V13.01,2013-05-27 17:33:00,
2013-05-27 12:34:00,60.8,28.4,30.05,NE,55,4.5,5.1,29,0.00,,---,0.00,VWS V13.01,2013-05-27 17:34:00,
2013-05-27 12:35:00,61.0,29.4,30.05,ENE,69,4.5,6.5,30,0.00,,---,0.00,VWS V13.01,2013-05-27 17:35:00,
2013-05-27 12:36:00,60.8,28.4,30.05,NE,55,4.5,5.1,29,0.00,,---,0.00,VWS V13.01,2013-05-27 17:36:00,
2013-05-27 12:37:00,61.2,28.7,30.05,ENE,63,6.9,6.9,29,0.00,,---,0.00,VWS V13.01,2013-05-27 17:37:00,
2013-05-27 12:38:00,61.3,28.8,30.05,ENE,78,5.1,6.9,29,0.00,,---,0.00,VWS V13.01,2013-05-27 17:38:00,
2013-05-27 12:39:00,61.3,28.8,30.05,ENE,57,5.1,6.5,29,0.00,,---,0.00,VWS V13.01,2013-05-27 17:39:00,
2013-05-27 12:40:00,61.3,28.8,30.05,ENE,61,4.0,5.1,29,0.00,,---,0.00,VWS V13.01,2013-05-27 17:40:00,
2013-05-27 12:41:00,61.3,28.8,30.05,ESE,105,4.7,5.1,29,0.00,,---,0.00,VWS V13.01,2013-05-27 17:41:00,
2013-05-27 12:42:00,61.5,29.0,30.05,NNE,12,4.7,6.9,29,0.00,,---,0.00,VWS V13.01,2013-05-27 17:42:00,
2013-05-27 12:43:00,61.5,29.0,30.05,NE,41,4.0,4.7,29,0.00,,---,0.00,VWS V13.01,2013-05-27 17:43:00,
2013-05-27 12:44:00,61.5,29.0,30.05,NE,54,5.6,8.7,29,0.00,,---,0.00,VWS V13.01,2013-05-27 17:44:00,
2013-05-27 12:45:00,61.5,29.0,30.05,ENE,65,5.6,5.6,29,0.00,,---,0.00,VWS V13.01,2013-05-27 17:45:00,
2013-05-27 12:46:00,61.5,29.0,30.05,NE,42,5.1,5.6,29,0.00,,---,0.00,VWS V13.01,2013-05-27 17:46:00,
2013-05-27 12:47:00,61.5,29.0,30.05,East,87,3.6,5.6,29,0.00,,---,0.00,VWS V13.01,2013-05-27 17:47:00,
2013-05-27 12:48:00,61.5,29.0,30.05,East,90,4.0,6.0,29,0.00,,---,0.00,VWS V13.01,2013-05-27 17:48:00,
2013-05-27 12:49:00,61.7,29.1,30.05,East,93,4.5,6.5,29,0.00,,---,0.00,VWS V13.01,2013-05-27 17:49:00,
2013-05-27 12:50:00,61.7,29.1,30.05,ESE,118,5.6,6.9,29,0.00,,---,0.00,VWS V13.01,2013-05-27 17:50:00,
2013-05-27 12:51:00,61.7,29.1,30.05,ENE,57,5.6,5.6,29,0.00,,---,0.00,VWS V13.01,2013-05-27 17:51:00,
2013-05-27 12:52:00,61.9,28.4,30.05,ENE,63,5.1,5.1,28,0.00,,---,0.00,VWS V13.01,2013-05-27 17:52:00,
2013-05-27 12:53:00,62.1,28.6,30.05,ENE,76,4.7,5.6,28,0.00,,---,0.00,VWS V13.01,2013-05-27 17:53:00,
2013-05-27 12:54:00,62.1,28.6,30.05,NNE,19,6.9,6.9,28,0.00,,---,0.00,VWS V13.01,2013-05-27 17:54:00,
2013-05-27 12:55:00,62.2,28.8,30.05,ESE,108,4.5,6.9,28,0.00,,---,0.00,VWS V13.01,2013-05-27 17:55:00,
2013-05-27 12:56:00,62.1,28.6,30.05,ENE,76,4.5,6.9,28,0.00,,---,0.00,VWS V13.01,2013-05-27 17:56:00,
2013-05-27 12:57:00,62.2,28.8,30.05,East,89,4.0,4.7,28,0.00,,---,0.00,VWS V13.01,2013-05-27 17:57:00,
2013-05-27 12:58:00,62.2,28.8,30.05,NE,45,4.0,4.5,28,0.00,,---,0.00,VWS V13.01,2013-05-27 17:58:00,
2013-05-27 12:59:00,62.4,28.9,30.05,East,82,4.0,4.5,28,0.00,,---,0.00,VWS V13.01,2013-05-27 17:59:00,
2013-05-27 13:00:00,62.6,29.1,30.05,NE,46,4.7,7.4,28,0.00,,---,0.00,VWS V13.01,2013-05-27 18:00:00,
2013-05-27 13:01:00,62.4,28.9,30.05,NE,43,7.4,7.4,28,0.00,,---,0.00,VWS V13.01,2013-05-27 18:01:00,
2013-05-27 13:02:00,62.6,29.1,30.05,NNE,26,5.1,5.1,28,0.00,,---,0.00,VWS V13.01,2013-05-27 18:02:00,
2013-05-27 13:03:00,62.6,28.2,30.05,ESE,104,4.0,6.5,27,0.00,,---,0.00,VWS V13.01,2013-05-27 18:03:00,
2013-05-27 13:04:00,62.6,29.1,30.05,East,100,4.7,5.6,28,0.00,,---,0.00,VWS V13.01,2013-05-27 18:04:00,
2013-05-27 13:05:00,62.6,28.2,30.05,ESE,112,4.7,6.5,27,0.00,,---,0.00,VWS V13.01,2013-05-27 18:05:00,
2013-05-27 13:06:00,62.6,28.2,30.05,ENE,78,4.7,5.6,27,0.00,,---,0.00,VWS V13.01,2013-05-27 18:06:00,
2013-05-27 13:07:00,62.6,28.2,30.05,South,178,4.7,6.5,27,0.00,,---,0.00,VWS V13.01,2013-05-27 18:07:00,
2013-05-27 13:08:00,62.8,28.3,30.05,East,81,4.7,5.6,27,0.00,,---,0.00,VWS V13.01,2013-05-27 18:08:00,
2013-05-27 13:09:00,62.8,28.3,30.05,ENE,69,5.6,6.9,27,0.00,,---,0.00,VWS V13.01,2013-05-27 18:09:00,
2013-05-27 13:10:00,63.0,28.5,30.02,East,84,6.5,6.5,27,0.00,,---,0.00,VWS V13.01,2013-05-27 18:10:00,
2013-05-27 13:11:00,63.0,28.5,30.02,East,81,4.5,6.5,27,0.00,,---,0.00,VWS V13.01,2013-05-27 18:11:00,
2013-05-27 13:12:00,63.0,28.5,30.02,ESE,108,4.0,5.6,27,0.00,,---,0.00,VWS V13.01,2013-05-27 18:12:00,
2013-05-27 13:13:00,63.1,28.6,30.02,ENE,61,4.0,6.5,27,0.00,,---,0.00,VWS V13.01,2013-05-27 18:13:00,
2013-05-27 13:14:00,63.1,28.6,30.02,East,93,4.0,5.1,27,0.00,,---,0.00,VWS V13.01,2013-05-27 18:14:00,
2013-05-27 13:15:00,63.3,28.8,30.02,ESE,106,6.0,7.8,27,0.00,,---,0.00,VWS V13.01,2013-05-27 18:15:00,
2013-05-27 13:16:00,63.9,29.3,30.02,East,97,5.1,6.9,27,0.00,,---,0.00,VWS V13.01,2013-05-27 18:16:00,
2013-05-27 13:17:00,63.3,28.8,30.02,ESE,104,7.8,7.8,27,0.00,,---,0.00,VWS V13.01,2013-05-27 18:17:00,
2013-05-27 13:18:00,64.0,29.4,30.02,East,89,4.5,4.7,27,0.00,,---,0.00,VWS V13.01,2013-05-27 18:18:00,
2013-05-27 13:19:00,64.2,29.6,30.02,ESE,117,6.9,6.9,27,0.00,,---,0.00,VWS V13.01,2013-05-27 18:19:00,
2013-05-27 13:20:00,64.2,29.6,30.02,SE,129,5.6,6.9,27,0.00,,---,0.00,VWS V13.01,2013-05-27 18:20:00,
2013-05-27 13:21:00,64.0,28.5,30.02,East,98,5.6,5.6,26,0.00,,---,0.00,VWS V13.01,2013-05-27 18:21:00,
2013-05-27 13:22:00,64.2,29.6,30.02,SE,129,5.6,5.6,27,0.00,,---,0.00,VWS V13.01,2013-05-27 18:22:00,
2013-05-27 13:23:00,64.0,28.5,30.02,East,80,6.0,6.0,26,0.00,,---,0.00,VWS V13.01,2013-05-27 18:23:00,
2013-05-27 13:24:00,63.9,28.3,30.02,ESE,113,7.4,7.4,26,0.00,,---,0.00,VWS V13.01,2013-05-27 18:24:00,
2013-05-27 13:25:00,63.9,28.3,30.02,ENE,61,4.0,7.4,26,0.00,,---,0.00,VWS V13.01,2013-05-27 18:25:00,
2013-05-27 13:26:00,63.7,28.2,30.02,ENE,78,5.1,8.7,26,0.00,,---,0.00,VWS V13.01,2013-05-27 18:26:00,
2013-05-27 13:27:00,63.9,28.3,30.02,ENE,61,4.0,7.4,26,0.00,,---,0.00,VWS V13.01,2013-05-27 18:27:00,
2013-05-27 13:28:00,63.5,28.0,30.02,ENE,70,4.7,6.9,26,0.00,,---,0.00,VWS V13.01,2013-05-27 18:28:00,
2013-05-27 13:29:00,63.5,28.0,30.02,ESE,109,5.1,6.5,26,0.00,,---,0.00,VWS V13.01,2013-05-27 18:29:00,
2013-05-27 13:30:00,63.3,27.9,30.02,ESE,103,5.1,5.1,26,0.00,,---,0.00,VWS V13.01,2013-05-27 18:30:00,
2013-05-27 13:31:00,63.3,27.9,30.02,ENE,68,4.7,5.1,26,0.00,,---,0.00,VWS V13.01,2013-05-27 18:31:00,
2013-05-27 13:32:00,63.3,27.9,30.02,ENE,62,4.7,5.1,26,0.00,,---,0.00,VWS V13.01,2013-05-27 18:32:00,
2013-05-27 13:33:00,63.5,28.0,30.02,NE,45,6.0,6.0,26,0.00,,---,0.00,VWS V13.01,2013-05-27 18:33:00,
2013-05-27 13:34:00,63.5,28.0,30.02,NNE,27,3.1,8.3,26,0.00,,---,0.00,VWS V13.01,2013-05-27 18:34:00,
2013-05-27 13:35:00,63.3,27.9,30.02,NE,42,4.0,6.0,26,0.00,,---,0.00,VWS V13.01,2013-05-27 18:35:00,
2013-05-27 13:36:00,63.3,27.9,30.02,ENE,58,4.5,6.9,26,0.00,,---,0.00,VWS V13.01,2013-05-27 18:36:00,
2013-05-27 13:37:00,63.3,27.9,30.02,NE,41,6.5,6.5,26,0.00,,---,0.00,VWS V13.01,2013-05-27 18:37:00,
2013-05-27 13:38:00,63.3,27.9,30.02,NE,49,5.6,6.9,26,0.00,,---,0.00,VWS V13.01,2013-05-27 18:38:00,
2013-05-27 13:39:00,63.1,27.7,30.02,ENE,67,5.1,6.0,26,0.00,,---,0.00,VWS V13.01,2013-05-27 18:39:00,
2013-05-27 13:40:00,63.1,27.7,30.02,NNE,31,5.1,7.8,26,0.00,,---,0.00,VWS V13.01,2013-05-27 18:40:00,
2013-05-27 13:41:00,63.1,27.7,30.02,NE,48,6.0,7.4,26,0.00,,---,0.00,VWS V13.01,2013-05-27 18:41:00,
2013-05-27 13:42:00,63.1,27.7,30.02,NE,53,7.4,7.4,26,0.00,,---,0.00,VWS V13.01,2013-05-27 18:42:00,
2013-05-27 13:43:00,63.1,27.7,30.02,NNE,33,5.1,7.8,26,0.00,,---,0.00,VWS V13.01,2013-05-27 18:43:00,
2013-05-27 13:44:00,63.1,27.7,30.02,ENE,76,5.6,6.0,26,0.00,,---,0.00,VWS V13.01,2013-05-27 18:44:00,
2013-05-27 13:45:00,63.1,27.7,30.02,ENE,70,5.6,5.6,26,0.00,,---,0.00,VWS V13.01,2013-05-27 18:45:00,
2013-05-27 13:46:00,63.3,27.9,30.02,ENE,71,5.1,6.5,26,0.00,,---,0.00,VWS V13.01,2013-05-27 18:46:00,
2013-05-27 13:47:00,63.3,27.9,30.02,East,95,5.6,6.5,26,0.00,,---,0.00,VWS V13.01,2013-05-27 18:47:00,
2013-05-27 13:48:00,63.9,28.3,30.02,ENE,70,3.6,5.6,26,0.00,,---,0.00,VWS V13.01,2013-05-27 18:48:00,
2013-05-27 13:49:00,63.9,28.3,30.02,ENE,76,5.1,6.0,26,0.00,,---,0.00,VWS V13.01,2013-05-27 18:49:00,
2013-05-27 13:50:00,64.0,28.5,30.02,ENE,74,6.5,6.5,26,0.00,,---,0.00,VWS V13.01,2013-05-27 18:50:00,
2013-05-27 13:51:00,64.0,28.5,30.02,NE,37,6.0,6.9,26,0.00,,---,0.00,VWS V13.01,2013-05-27 18:51:00,
2013-05-27 13:52:00,64.0,28.5,30.02,NE,45,6.5,6.5,26,0.00,,---,0.00,VWS V13.01,2013-05-27 18:52:00,
2013-05-27 13:53:00,64.0,28.5,30.02,NE,38,5.6,6.9,26,0.00,,---,0.00,VWS V13.01,2013-05-27 18:53:00,
2013-05-27 13:54:00,63.9,28.3,30.02,East,86,6.0,7.8,26,0.00,,---,0.00,VWS V13.01,2013-05-27 18:54:00,
2013-05-27 13:55:00,63.7,28.2,30.02,East,79,5.6,8.3,26,0.00,,---,0.00,VWS V13.01,2013-05-27 18:55:00,
2013-05-27 13:56:00,63.7,28.2,30.02,ENE,77,6.0,6.9,26,0.00,,---,0.00,VWS V13.01,2013-05-27 18:56:00,
2013-05-27 13:57:00,63.5,28.0,30.02,North,8,6.0,9.4,26,0.00,,---,0.00,VWS V13.01,2013-05-27 18:57:00,
2013-05-27 13:58:00,63.7,28.2,30.02,ENE,60,6.9,6.9,26,0.00,,---,0.00,VWS V13.01,2013-05-27 18:58:00,
2013-05-27 13:59:00,63.5,28.0,30.02,East,88,5.1,6.0,26,0.00,,---,0.00,VWS V13.01,2013-05-27 18:59:00,
2013-05-27 14:00:00,63.5,28.0,30.02,East,98,4.7,7.4,26,0.00,,---,0.00,VWS V13.01,2013-05-27 19:00:00,
2013-05-27 14:01:00,63.5,28.0,30.02,ENE,60,3.1,6.5,26,0.00,,---,0.00,VWS V13.01,2013-05-27 19:01:00,
2013-05-27 14:02:00,63.5,28.0,30.02,NE,50,5.1,5.6,26,0.00,,---,0.00,VWS V13.01,2013-05-27 19:02:00,
2013-05-27 14:03:00,63.5,28.0,30.02,East,83,5.1,6.5,26,0.00,,---,0.00,VWS V13.01,2013-05-27 19:03:00,
2013-05-27 14:04:00,63.7,28.2,30.02,East,87,5.6,6.5,26,0.00,,---,0.00,VWS V13.01,2013-05-27 19:04:00,
2013-05-27 14:05:00,63.9,28.3,30.02,East,99,5.6,6.9,26,0.00,,---,0.00,VWS V13.01,2013-05-27 19:05:00,
2013-05-27 14:06:00,63.9,28.3,30.02,East,96,5.1,5.6,26,0.00,,---,0.00,VWS V13.01,2013-05-27 19:06:00,
2013-05-27 14:07:00,64.0,28.5,30.02,ENE,58,4.0,6.5,26,0.00,,---,0.00,VWS V13.01,2013-05-27 19:07:00,
2013-05-27 14:08:00,63.9,28.3,30.02,East,96,5.1,5.6,26,0.00,,---,0.00,VWS V13.01,2013-05-27 19:08:00,
2013-05-27 14:09:00,64.4,27.8,30.02,SE,131,4.7,6.9,25,0.00,,---,0.00,VWS V13.01,2013-05-27 19:09:00,
2013-05-27 14:10:00,64.4,27.8,30.02,East,92,4.7,5.6,25,0.00,,---,0.00,VWS V13.01,2013-05-27 19:10:00,
2013-05-27 14:11:00,64.6,29.0,30.02,ENE,62,6.5,6.5,26,0.00,,---,0.00,VWS V13.01,2013-05-27 19:11:00,
2013-05-27 14:12:00,64.8,28.1,30.02,ESE,104,6.5,6.5,25,0.00,,---,0.00,VWS V13.01,2013-05-27 19:12:00,
2013-05-27 14:13:00,64.6,29.0,30.02,ENE,62,6.5,6.5,26,0.00,,---,0.00,VWS V13.01,2013-05-27 19:13:00,
2013-05-27 14:14:00,64.9,29.3,30.02,NE,43,5.1,5.6,26,0.00,,---,0.00,VWS V13.01,2013-05-27 19:14:00,
2013-05-27 14:15:00,64.9,28.3,30.02,ESE,113,6.5,6.5,25,0.00,,---,0.00,VWS V13.01,2013-05-27 19:15:00,
2013-05-27 14:16:00,64.9,28.3,30.02,East,82,5.1,6.5,25,0.00,,---,0.00,VWS V13.01,2013-05-27 19:16:00,
2013-05-27 14:17:00,65.1,28.5,30.02,SE,130,5.1,6.0,25,0.00,,---,0.00,VWS V13.01,2013-05-27 19:17:00,
2013-05-27 14:18:00,64.9,28.3,30.02,East,82,5.1,6.5,25,0.00,,---,0.00,VWS V13.01,2013-05-27 19:18:00,
2013-05-27 14:19:00,65.3,28.6,30.02,ENE,63,4.7,9.4,25,0.00,,---,0.00,VWS V13.01,2013-05-27 19:19:00,
2013-05-27 14:20:00,65.5,28.8,30.02,NE,39,6.0,6.0,25,0.00,,---,0.00,VWS V13.01,2013-05-27 19:20:00,
2013-05-27 14:21:00,65.5,28.8,30.02,North,8,6.0,7.4,25,0.00,,---,0.00,VWS V13.01,2013-05-27 19:21:00,
2013-05-27 14:22:00,65.5,28.8,30.02,ENE,64,6.0,8.7,25,0.00,,---,0.00,VWS V13.01,2013-05-27 19:22:00,
2013-05-27 14:23:00,65.5,28.8,30.02,North,8,6.0,6.0,25,0.00,,---,0.00,VWS V13.01,2013-05-27 19:23:00,
2013-05-27 14:24:00,65.3,28.6,30.02,NE,50,4.7,5.6,25,0.00,,---,0.00,VWS V13.01,2013-05-27 19:24:00,
2013-05-27 14:25:00,65.1,28.5,30.02,ENE,68,6.5,9.8,25,0.00,,---,0.00,VWS V13.01,2013-05-27 19:25:00,
2013-05-27 14:26:00,65.1,28.5,29.99,East,100,4.0,6.5,25,0.00,,---,0.00,VWS V13.01,2013-05-27 19:26:00,
2013-05-27 14:27:00,64.9,28.3,29.99,South,177,4.7,7.4,25,0.00,,---,0.00,VWS V13.01,2013-05-27 19:27:00,
2013-05-27 14:28:00,64.9,28.3,29.99,East,100,4.0,4.0,25,0.00,,---,0.00,VWS V13.01,2013-05-27 19:28:00,
2013-05-27 14:29:00,64.8,28.1,29.99,ESE,104,4.0,5.6,25,0.00,,---,0.00,VWS V13.01,2013-05-27 19:29:00,
2013-05-27 14:30:00,64.8,28.1,29.99,East,83,3.6,4.5,25,0.00,,---,0.00,VWS V13.01,2013-05-27 19:30:00,
2013-05-27 14:31:00,64.8,29.1,29.99,NNE,32,5.1,5.1,26,0.00,,---,0.00,VWS V13.01,2013-05-27 19:31:00,
2013-05-27 14:32:00,64.8,29.1,29.99,East,81,4.0,6.9,26,0.00,,---,0.00,VWS V13.01,2013-05-27 19:32:00,
2013-05-27 14:33:00,64.8,29.1,29.99,NE,36,6.9,6.9,26,0.00,,---,0.00,VWS V13.01,2013-05-27 19:33:00,
2013-05-27 14:34:00,64.8,29.1,29.99,East,88,3.1,5.1,26,0.00,,---,0.00,VWS V13.01,2013-05-27 19:34:00,
2013-05-27 14:35:00,64.6,28.0,29.99,NE,45,6.0,6.9,25,0.00,,---,0.00,VWS V13.01,2013-05-27 19:35:00,
2013-05-27 14:36:00,64.6,29.0,29.99,NE,44,8.3,8.3,26,0.00,,---,0.00,VWS V13.01,2013-05-27 19:36:00,
2013-05-27 14:37:00,64.6,28.0,29.99,ENE,60,4.7,8.3,25,0.00,,---,0.00,VWS V13.01,2013-05-27 19:37:00,
2013-05-27 14:38:00,64.6,29.0,29.99,NE,45,6.9,8.3,26,0.00,,---,0.00,VWS V13.01,2013-05-27 19:38:00,
2013-05-27 14:39:00,64.2,28.6,29.99,NE,41,4.7,5.6,26,0.00,,---,0.00,VWS V13.01,2013-05-27 19:39:00,
2013-05-27 14:40:00,64.2,28.6,29.99,ENE,70,5.1,6.0,26,0.00,,---,0.00,VWS V13.01,2013-05-27 19:40:00,
2013-05-27 14:41:00,63.9,28.3,29.99,ENE,64,4.0,6.0,26,0.00,,---,0.00,VWS V13.01,2013-05-27 19:41:00,
2013-05-27 14:42:00,63.9,28.3,29.99,ENE,68,4.0,6.5,26,0.00,,---,0.00,VWS V13.01,2013-05-27 19:42:00,
2013-05-27 14:43:00,63.9,28.3,29.99,NE,48,6.0,6.0,26,0.00,,---,0.00,VWS V13.01,2013-05-27 19:43:00,
2013-05-27 14:44:00,63.5,28.0,29.99,ENE,68,4.7,7.4,26,0.00,,---,0.00,VWS V13.01,2013-05-27 19:44:00,
2013-05-27 14:45:00,63.5,28.0,29.99,ENE,63,4.7,6.9,26,0.00,,---,0.00,VWS V13.01,2013-05-27 19:45:00,
2013-05-27 14:46:00,63.3,27.9,29.99,NE,46,4.5,5.1,26,0.00,,---,0.00,VWS V13.01,2013-05-27 19:46:00,
2013-05-27 14:47:00,63.1,27.7,29.99,ENE,77,3.1,4.7,26,0.00,,---,0.00,VWS V13.01,2013-05-27 19:47:00,
2013-05-27 14:48:00,63.1,27.7,29.99,ESE,108,4.0,6.5,26,0.00,,---,0.00,VWS V13.01,2013-05-27 19:48:00,
2013-05-27 14:49:00,63.1,27.7,29.99,NE,52,4.7,4.7,26,0.00,,---,0.00,VWS V13.01,2013-05-27 19:49:00,
2013-05-27 14:50:00,63.1,27.7,29.99,NE,47,4.5,6.5,26,0.00,,---,0.00,VWS V13.01,2013-05-27 19:50:00,
2013-05-27 14:51:00,63.1,27.7,29.99,NE,47,5.1,7.8,26,0.00,,---,0.00,VWS V13.01,2013-05-27 19:51:00,
2013-05-27 14:52:00,63.1,27.7,29.99,North,6,6.0,6.0,26,0.00,,---,0.00,VWS V13.01,2013-05-27 19:52:00,
2013-05-27 14:53:00,63.0,27.6,29.99,NNE,28,8.7,8.7,26,0.00,,---,0.00,VWS V13.01,2013-05-27 19:53:00,
2013-05-27 14:54:00,63.1,27.7,29.99,NE,54,4.0,5.6,26,0.00,,---,0.00,VWS V13.01,2013-05-27 19:54:00,
2013-05-27 14:55:00,62.8,27.4,30.02,ENE,57,3.6,6.5,26,0.00,,---,0.00,VWS V13.01,2013-05-27 19:55:00,
2013-05-27 14:56:00,62.8,27.4,30.02,ENE,58,6.0,6.5,26,0.00,,---,0.00,VWS V13.01,2013-05-27 19:56:00,
2013-05-27 14:57:00,62.8,27.4,30.02,NE,52,4.5,6.0,26,0.00,,---,0.00,VWS V13.01,2013-05-27 19:57:00,
2013-05-27 14:58:00,62.8,27.4,30.02,ESE,108,4.0,4.5,26,0.00,,---,0.00,VWS V13.01,2013-05-27 19:58:00,
2013-05-27 14:59:00,62.8,27.4,30.02,ESE,116,4.5,6.0,26,0.00,,---,0.00,VWS V13.01,2013-05-27 19:59:00,
2013-05-27 15:00:00,62.8,27.4,30.02,ENE,61,4.7,5.1,26,0.00,,---,0.00,VWS V13.01,2013-05-27 20:00:00,
2013-05-27 15:01:00,63.0,27.6,30.02,NE,47,6.0,6.5,26,0.00,,---,0.00,VWS V13.01,2013-05-27 20:01:00,
2013-05-27 15:02:00,63.0,27.6,30.02,ENE,75,4.5,6.0,26,0.00,,---,0.00,VWS V13.01,2013-05-27 20:02:00,
2013-05-27 15:03:00,63.0,27.6,30.02,NNE,33,4.7,5.6,26,0.00,,---,0.00,VWS V13.01,2013-05-27 20:03:00,
2013-05-27 15:04:00,63.0,27.6,30.02,ENE,74,4.5,6.0,26,0.00,,---,0.00,VWS V13.01,2013-05-27 20:04:00,
2013-05-27 15:05:00,63.0,27.6,30.02,NNE,27,6.5,7.8,26,0.00,,---,0.00,VWS V13.01,2013-05-27 20:05:00,
2013-05-27 15:06:00,63.0,27.6,30.02,NE,49,4.5,6.5,26,0.00,,---,0.00,VWS V13.01,2013-05-27 20:06:00,
2013-05-27 15:07:00,62.8,27.4,30.02,ENE,68,4.7,5.1,26,0.00,,---,0.00,VWS V13.01,2013-05-27 20:07:00,
2013-05-27 15:08:00,62.8,27.4,30.02,NNE,27,5.1,5.1,26,0.00,,---,0.00,VWS V13.01,2013-05-27 20:08:00,
2013-05-27 15:09:00,62.8,27.4,30.02,ENE,73,5.1,5.1,26,0.00,,---,0.00,VWS V13.01,2013-05-27 20:09:00,
2013-05-27 15:10:00,62.8,27.4,29.99,NE,54,6.0,6.5,26,0.00,,---,0.00,VWS V13.01,2013-05-27 20:10:00,
2013-05-27 15:11:00,62.8,27.4,29.99,NE,48,5.6,6.9,26,0.00,,---,0.00,VWS V13.01,2013-05-27 20:11:00,
2013-05-27 15:12:00,62.8,27.4,29.99,NE,52,3.1,5.6,26,0.00,,---,0.00,VWS V13.01,2013-05-27 20:12:00,
2013-05-27 15:13:00,62.8,27.4,29.99,ENE,73,3.1,4.5,26,0.00,,---,0.00,VWS V13.01,2013-05-27 20:13:00,
2013-05-27 15:14:00,62.8,27.4,29.99,NE,56,4.5,5.6,26,0.00,,---,0.00,VWS V13.01,2013-05-27 20:14:00,
2013-05-27 15:15:00,63.0,27.6,29.99,East,79,5.6,8.9,26,0.00,,---,0.00,VWS V13.01,2013-05-27 20:15:00,
2013-05-27 15:16:00,63.0,27.6,29.99,ENE,75,5.1,6.9,26,0.00,,---,0.00,VWS V13.01,2013-05-27 20:16:00,
2013-05-27 15:17:00,63.0,27.6,29.99,East,80,4.0,5.1,26,0.00,,---,0.00,VWS V13.01,2013-05-27 20:17:00,
2013-05-27 15:18:00,63.1,27.7,29.99,ENE,65,7.4,7.4,26,0.00,,---,0.00,VWS V13.01,2013-05-27 20:18:00,
2013-05-27 15:19:00,63.0,27.6,29.99,East,80,4.0,5.1,26,0.00,,---,0.00,VWS V13.01,2013-05-27 20:19:00,
2013-05-27 15:20:00,63.1,27.7,29.99,NE,48,3.6,4.7,26,0.00,,---,0.00,VWS V13.01,2013-05-27 20:20:00,
2013-05-27 15:21:00,63.0,27.6,29.99,NE,53,5.1,6.5,26,0.00,,---,0.00,VWS V13.01,2013-05-27 20:21:00,
2013-05-27 15:22:00,63.0,27.6,29.99,ENE,59,6.0,7.4,26,0.00,,---,0.00,VWS V13.01,2013-05-27 20:22:00,
2013-05-27 15:23:00,63.0,27.6,29.99,East,79,5.1,7.8,26,0.00,,---,0.00,VWS V13.01,2013-05-27 20:23:00,
2013-05-27 15:24:00,63.0,27.6,29.99,ENE,59,6.0,7.4,26,0.00,,---,0.00,VWS V13.01,2013-05-27 20:24:00,
2013-05-27 15:25:00,63.0,27.6,29.99,NE,49,5.6,6.5,26,0.00,,---,0.00,VWS V13.01,2013-05-27 20:25:00,
2013-05-27 15:26:00,62.8,27.4,29.99,ENE,57,3.6,5.6,26,0.00,,---,0.00,VWS V13.01,2013-05-27 20:26:00,
2013-05-27 15:27:00,62.8,27.4,29.99,NE,48,4.7,5.6,26,0.00,,---,0.00,VWS V13.01,2013-05-27 20:27:00,
2013-05-27 15:28:00,63.0,27.6,29.99,NNW,339,2.7,5.1,26,0.00,,---,0.00,VWS V13.01,2013-05-27 20:28:00,
2013-05-27 15:29:00,62.8,27.4,29.99,NE,48,4.7,5.6,26,0.00,,---,0.00,VWS V13.01,2013-05-27 20:29:00,
2013-05-27 15:30:00,63.0,27.6,29.99,NE,48,4.7,6.0,26,0.00,,---,0.00,VWS V13.01,2013-05-27 20:30:00,
2013-05-27 15:31:00,63.0,27.6,29.99,NE,34,5.6,5.6,26,0.00,,---,0.00,VWS V13.01,2013-05-27 20:31:00,
2013-05-27 15:32:00,63.0,27.6,29.99,NNE,27,6.0,8.3,26,0.00,,---,0.00,VWS V13.01,2013-05-27 20:32:00,
2013-05-27 15:33:00,63.0,27.6,29.99,NE,38,4.5,6.5,26,0.00,,---,0.00,VWS V13.01,2013-05-27 20:33:00,
2013-05-27 15:34:00,63.0,27.6,29.99,NNE,27,6.0,8.3,26,0.00,,---,0.00,VWS V13.01,2013-05-27 20:34:00,
2013-05-27 15:35:00,63.0,27.6,29.99,East,83,5.1,7.8,26,0.00,,---,0.00,VWS V13.01,2013-05-27 20:35:00,
2013-05-27 15:36:00,63.0,27.6,29.99,NE,40,5.1,8.3,26,0.00,,---,0.00,VWS V13.01,2013-05-27 20:36:00,
2013-05-27 15:37:00,62.8,27.4,29.99,ENE,68,3.6,7.4,26,0.00,,---,0.00,VWS V13.01,2013-05-27 20:37:00,
2013-05-27 15:38:00,62.8,27.4,29.99,NE,46,4.7,4.7,26,0.00,,---,0.00,VWS V13.01,2013-05-27 20:38:00,
2013-05-27 15:39:00,62.8,27.4,29.99,ENE,68,3.6,3.6,26,0.00,,---,0.00,VWS V13.01,2013-05-27 20:39:00,
2013-05-27 15:40:00,62.6,27.3,29.99,NE,38,4.0,5.1,26,0.00,,---,0.00,VWS V13.01,2013-05-27 20:40:00,
2013-05-27 15:41:00,62.6,27.3,29.99,NE,49,4.5,5.1,26,0.00,,---,0.00,VWS V13.01,2013-05-27 20:41:00,
2013-05-27 15:42:00,62.6,27.3,29.99,East,93,4.5,4.5,26,0.00,,---,0.00,VWS V13.01,2013-05-27 20:42:00,
2013-05-27 15:43:00,62.6,27.3,29.99,NE,54,5.6,5.6,26,0.00,,---,0.00,VWS V13.01,2013-05-27 20:43:00,
2013-05-27 15:44:00,62.6,27.3,29.99,East,93,4.5,4.5,26,0.00,,---,0.00,VWS V13.01,2013-05-27 20:44:00,
2013-05-27 15:45:00,62.8,27.4,29.99,NNE,20,4.0,5.6,26,0.00,,---,0.00,VWS V13.01,2013-05-27 20:45:00,
2013-05-27 15:46:00,63.0,27.6,29.99,East,87,5.6,6.5,26,0.00,,---,0.00,VWS V13.01,2013-05-27 20:46:00,
2013-05-27 15:47:00,63.0,27.6,29.99,East,89,4.5,5.6,26,0.00,,---,0.00,VWS V13.01,2013-05-27 20:47:00,
2013-05-27 15:48:00,63.0,27.6,29.99,NE,53,4.5,4.7,26,0.00,,---,0.00,VWS V13.01,2013-05-27 20:48:00,
2013-05-27 15:49:00,63.0,27.6,29.99,East,89,4.5,5.6,26,0.00,,---,0.00,VWS V13.01,2013-05-27 20:49:00,
2013-05-27 15:50:00,63.1,27.7,29.99,NNE,29,6.0,6.0,26,0.00,,---,0.00,VWS V13.01,2013-05-27 20:50:00,
2013-05-27 15:51:00,63.1,27.7,29.99,NNE,21,6.9,8.7,26,0.00,,---,0.00,VWS V13.01,2013-05-27 20:51:00,
2013-05-27 15:52:00,63.1,27.7,29.99,NNE,30,8.3,8.3,26,0.00,,---,0.00,VWS V13.01,2013-05-27 20:52:00,
2013-05-27 15:53:00,63.1,27.7,29.99,NE,46,6.0,8.3,26,0.00,,---,0.00,VWS V13.01,2013-05-27 20:53:00,
2013-05-27 15:54:00,63.1,27.7,29.99,NNE,30,8.3,8.3,26,0.00,,---,0.00,VWS V13.01,2013-05-27 20:54:00,
2013-05-27 15:55:00,63.1,27.7,29.99,East,100,4.5,5.6,26,0.00,,---,0.00,VWS V13.01,2013-05-27 20:55:00,
2013-05-27 15:56:00,63.1,27.7,29.99,East,88,6.0,6.0,26,0.00,,---,0.00,VWS V13.01,2013-05-27 20:56:00,
2013-05-27 15:57:00,63.1,28.6,29.99,NNE,21,5.6,6.0,27,0.00,,---,0.00,VWS V13.01,2013-05-27 20:57:00,
2013-05-27 15:58:00,63.1,27.7,29.99,SSE,147,4.5,5.6,26,0.00,,---,0.00,VWS V13.01,2013-05-27 20:58:00,
2013-05-27 15:59:00,63.1,28.6,29.99,NNE,20,5.6,5.6,27,0.00,,---,0.00,VWS V13.01,2013-05-27 20:59:00,
2013-05-27 16:00:00,63.3,27.9,29.99,NNE,19,6.5,6.5,26,0.00,,---,0.00,VWS V13.01,2013-05-27 21:00:00,
2013-05-27 16:04:00,63.3,27.9,29.99,NNE,19,6.5,6.5,26,0.00,,---,0.00,VWS V13.01,2013-05-27 21:04:00,
2013-05-27 16:09:00,63.3,27.9,29.99,NNE,19,6.5,6.5,26,0.00,,---,0.00,VWS V13.01,2013-05-27 21:09:00,
2013-05-27 18:05:00,61.0,26.8,29.96,NE,44,4.7,4.7,27,0.00,,---,0.00,VWS V13.01,2013-05-27 23:05:00,
2013-05-27 18:10:00,61.0,26.8,29.96,ENE,58,5.6,5.6,27,0.00,,---,0.00,VWS V13.01,2013-05-27 23:10:00,
2013-05-27 18:16:00,60.6,26.5,29.96,East,86,5.1,6.5,27,0.00,,---,0.00,VWS V13.01,2013-05-27 23:16:00,
2013-05-27 18:21:00,60.3,26.2,29.96,East,84,3.6,5.1,27,0.00,,---,0.00,VWS V13.01,2013-05-27 23:21:00,
2013-05-27 18:26:00,60.1,26.9,29.96,ENE,68,4.7,4.7,28,0.00,,---,0.00,VWS V13.01,2013-05-27 23:26:00,
2013-05-27 18:31:00,59.7,26.6,29.96,ENE,68,3.6,4.5,28,0.00,,---,0.00,VWS V13.01,2013-05-27 23:31:00,
2013-05-27 18:36:00,59.5,26.4,29.96,ENE,58,3.1,4.0,28,0.00,,---,0.00,VWS V13.01,2013-05-27 23:36:00,
2013-05-27 18:41:00,59.4,26.3,29.96,NE,38,4.5,4.5,28,0.00,,---,0.00,VWS V13.01,2013-05-27 23:41:00,
2013-05-27 18:46:00,59.2,26.1,29.96,NE,48,4.0,4.0,28,0.00,,---,0.00,VWS V13.01,2013-05-27 23:46:00,
2013-05-27 18:51:00,58.8,26.6,29.96,NE,53,6.0,6.0,29,0.00,,---,0.00,VWS V13.01,2013-05-27 23:51:00,
2013-05-27 18:57:00,58.6,26.5,29.96,ENE,63,4.7,6.0,29,0.00,,---,0.00,VWS V13.01,2013-05-27 23:57:00,
2013-05-27 19:02:00,58.3,26.2,29.96,ENE,69,4.7,4.7,29,0.00,,---,0.00,VWS V13.01,2013-05-28 00:02:00,
2013-05-27 19:07:00,57.9,25.9,29.96,ENE,68,4.0,4.7,29,0.00,,---,0.00,VWS V13.01,2013-05-28 00:07:00,
2013-05-27 19:12:00,57.7,26.5,29.96,ENE,64,5.6,5.6,30,0.00,,---,0.00,VWS V13.01,2013-05-28 00:12:00,
2013-05-27 19:17:00,57.4,26.2,29.96,ENE,64,6.0,6.9,30,0.00,,---,0.00,VWS V13.01,2013-05-28 00:17:00,
2013-05-27 19:22:00,56.8,26.5,29.96,NNE,31,4.0,5.6,31,0.00,,---,0.00,VWS V13.01,2013-05-28 00:22:00,
2013-05-27 19:27:00,56.5,27.0,29.96,ENE,59,4.7,4.7,32,0.00,,---,0.00,VWS V13.01,2013-05-28 00:27:00,
2013-05-27 19:32:00,56.3,26.8,29.96,East,85,3.1,4.0,32,0.00,,---,0.00,VWS V13.01,2013-05-28 00:32:00,
2013-05-27 19:37:00,55.9,27.3,29.96,NNE,16,0.0,4.5,33,0.00,,---,0.00,VWS V13.01,2013-05-28 00:37:00,
2013-05-27 19:42:00,55.8,27.1,29.93,ENE,57,0.0,0.0,33,0.00,,---,0.00,VWS V13.01,2013-05-28 00:42:00,
2013-05-27 19:47:00,55.6,27.7,29.93,ESE,115,0.0,0.0,34,0.00,,---,0.00,VWS V13.01,2013-05-28 00:47:00,
2013-05-27 19:52:00,55.4,27.5,29.93,NNE,23,2.7,3.6,34,0.00,,---,0.00,VWS V13.01,2013-05-28 00:52:00,
2013-05-27 19:57:00,55.2,28.1,29.93,East,84,0.0,0.0,35,0.00,,---,0.00,VWS V13.01,2013-05-28 00:57:00,
2013-05-27 20:02:00,55.0,27.9,29.93,NNE,27,2.7,3.6,35,0.00,,---,0.00,VWS V13.01,2013-05-28 01:02:00,
2013-05-27 20:07:00,54.9,27.8,29.93,NE,56,0.0,0.0,35,0.00,,---,0.00,VWS V13.01,2013-05-28 01:07:00,
2013-05-27 20:12:00,54.7,28.3,29.93,NE,38,0.0,0.0,36,0.00,,---,0.00,VWS V13.01,2013-05-28 01:12:00,
2013-05-27 20:18:00,54.7,28.3,29.93,NE,38,0.0,0.0,36,0.00,,---,0.00,VWS V13.01,2013-05-28 01:18:00,
2013-05-27 20:23:00,54.7,28.3,29.93,NNE,13,3.6,3.6,36,0.00,,---,0.00,VWS V13.01,2013-05-28 01:23:00,
2013-05-27 20:28:00,54.7,28.3,29.93,North,6,2.7,3.1,36,0.00,,---,0.00,VWS V13.01,2013-05-28 01:28:00,
2013-05-27 20:33:00,54.5,28.1,29.93,North,6,3.1,3.1,36,0.00,,---,0.00,VWS V13.01,2013-05-28 01:33:00,
2013-05-27 20:38:00,54.5,28.1,29.93,North,4,4.0,4.7,36,0.00,,---,0.00,VWS V13.01,2013-05-28 01:38:00,
2013-05-27 20:43:00,54.3,28.0,29.93,North,4,0.0,0.0,36,0.00,,---,0.00,VWS V13.01,2013-05-28 01:43:00,
2013-05-27 20:48:00,54.1,27.8,29.93,North,8,3.1,3.1,36,0.00,,---,0.00,VWS V13.01,2013-05-28 01:48:00,
2013-05-27 20:53:00,54.1,27.8,29.93,North,9,0.0,0.0,36,0.00,,---,0.00,VWS V13.01,2013-05-28 01:53:00,
2013-05-27 20:58:00,54.0,27.6,29.93,North,8,0.0,0.0,36,0.00,,---,0.00,VWS V13.01,2013-05-28 01:58:00,
2013-05-27 21:03:00,54.0,27.6,29.93,North,8,0.0,0.0,36,0.00,,---,0.00,VWS V13.01,2013-05-28 02:03:00,
2013-05-27 21:08:00,53.8,27.5,29.93,North,8,0.0,0.0,36,0.00,,---,0.00,VWS V13.01,2013-05-28 02:08:00,
2013-05-27 21:13:00,53.4,27.8,29.93,North,9,0.0,0.0,37,0.00,,---,0.00,VWS V13.01,2013-05-28 02:13:00,
2013-05-27 21:19:00,53.2,27.7,29.93,North,9,0.0,0.0,37,0.00,,---,0.00,VWS V13.01,2013-05-28 02:19:00,
2013-05-27 21:24:00,53.1,28.1,29.93,North,9,0.0,0.0,38,0.00,,---,0.00,VWS V13.01,2013-05-28 02:24:00,
2013-05-27 21:29:00,52.9,28.0,29.96,North,8,0.0,0.0,38,0.00,,---,0.00,VWS V13.01,2013-05-28 02:29:00,
2013-05-27 21:34:00,52.5,27.7,29.96,North,8,0.0,0.0,38,0.00,,---,0.00,VWS V13.01,2013-05-28 02:34:00,
2013-05-27 21:39:00,52.3,28.1,29.96,North,9,0.0,0.0,39,0.00,,---,0.00,VWS V13.01,2013-05-28 02:39:00,
2013-05-27 21:44:00,52.0,27.8,29.96,North,9,0.0,0.0,39,0.00,,---,0.00,VWS V13.01,2013-05-28 02:44:00,
2013-05-27 21:49:00,51.8,28.3,29.96,North,8,0.0,0.0,40,0.00,,---,0.00,VWS V13.01,2013-05-28 02:49:00,
2013-05-27 21:54:00,51.4,28.5,29.96,North,9,0.0,0.0,41,0.00,,---,0.00,VWS V13.01,2013-05-28 02:54:00,
2013-05-27 21:59:00,51.3,28.4,29.96,North,9,0.0,0.0,41,0.00,,---,0.00,VWS V13.01,2013-05-28 02:59:00,
2013-05-27 22:04:00,51.3,28.4,29.96,North,9,0.0,0.0,41,0.00,,---,0.00,VWS V13.01,2013-05-28 03:04:00,
2013-05-27 22:09:00,51.1,28.2,29.96,North,9,0.0,0.0,41,0.00,,---,0.00,VWS V13.01,2013-05-28 03:09:00,
2013-05-27 22:14:00,50.9,28.1,29.96,North,9,0.0,0.0,41,0.00,,---,0.00,VWS V13.01,2013-05-28 03:14:00,
2013-05-27 22:19:00,50.7,27.9,29.96,North,8,0.0,0.0,41,0.00,,---,0.00,VWS V13.01,2013-05-28 03:19:00,
2013-05-27 22:24:00,50.5,28.3,29.96,North,9,0.0,0.0,42,0.00,,---,0.00,VWS V13.01,2013-05-28 03:24:00,
2013-05-27 22:30:00,50.4,28.7,29.96,North,9,0.0,0.0,43,0.00,,---,0.00,VWS V13.01,2013-05-28 03:30:00,
2013-05-27 22:35:00,50.4,28.7,29.96,North,9,0.0,0.0,43,0.00,,---,0.00,VWS V13.01,2013-05-28 03:35:00,
2013-05-27 22:40:00,50.2,28.6,29.96,North,8,0.0,0.0,43,0.00,,---,0.00,VWS V13.01,2013-05-28 03:40:00,
2013-05-27 22:45:00,50.2,28.6,29.96,North,8,0.0,0.0,43,0.00,,---,0.00,VWS V13.01,2013-05-28 03:45:00,
2013-05-27 22:50:00,50.2,28.6,29.96,North,9,0.0,0.0,43,0.00,,---,0.00,VWS V13.01,2013-05-28 03:50:00,
2013-05-27 22:55:00,50.2,28.6,29.96,North,8,0.0,0.0,43,0.00,,---,0.00,VWS V13.01,2013-05-28 03:55:00,
2013-05-27 23:00:00,50.2,28.6,29.96,North,9,0.0,0.0,43,0.00,,---,0.00,VWS V13.01,2013-05-28 04:00:00,
2013-05-27 23:01:00,50.2,28.6,29.96,North,8,0.0,0.0,43,0.00,,---,0.00,VWS V13.01,2013-05-28 04:01:00,
2013-05-27 23:03:00,50.2,28.6,29.96,North,8,0.0,0.0,43,0.00,,---,0.00,VWS V13.01,2013-05-28 04:03:00,
2013-05-27 23:08:00,50.2,29.1,29.96,North,9,0.0,0.0,44,0.00,,---,0.00,VWS V13.01,2013-05-28 04:08:00,
2013-05-27 23:13:00,50.2,29.1,29.96,North,8,0.0,0.0,44,0.00,,---,0.00,VWS V13.01,2013-05-28 04:13:00,
2013-05-27 23:18:00,50.4,29.3,29.96,North,8,0.0,0.0,44,0.00,,---,0.00,VWS V13.01,2013-05-28 04:18:00,
2013-05-27 23:23:00,50.5,30.0,29.96,North,9,0.0,0.0,45,0.00,,---,0.00,VWS V13.01,2013-05-28 04:23:00,
2013-05-27 23:28:00,50.7,29.6,29.96,North,8,0.0,0.0,44,0.00,,---,0.00,VWS V13.01,2013-05-28 04:28:00,
2013-05-27 23:33:00,51.1,30.0,29.96,North,9,0.0,0.0,44,0.00,,---,0.00,VWS V13.01,2013-05-28 04:33:00,
2013-05-27 23:38:00,51.3,30.1,29.96,North,8,0.0,0.0,44,0.00,,---,0.00,VWS V13.01,2013-05-28 04:38:00,
2013-05-27 23:43:00,51.4,30.3,29.96,North,8,0.0,0.0,44,0.00,,---,0.00,VWS V13.01,2013-05-28 04:43:00,
2013-05-27 23:48:00,51.6,30.4,29.96,North,8,0.0,0.0,44,0.00,,---,0.00,VWS V13.01,2013-05-28 04:48:00,
2013-05-27 23:53:00,51.8,30.6,29.96,North,8,0.0,0.0,44,0.00,,---,0.00,VWS V13.01,2013-05-28 04:53:00,
2013-05-27 23:58:00,52.3,30.5,29.93,North,8,0.0,0.0,43,0.00,,---,0.00,VWS V13.01,2013-05-28 04:58:00,